| time (UTC) | temp F | wind direction | speed knots | gust knots | rain 1hr in | rain 24hr in | rain mn in | humidity % | barometer mb |
| 20260510043231 | 54 | 309 | 0.0 | 1.7 | 0.01 | 0.04 | 0.04 | 91 | 1009.7 |
| 20260510043144 | 48 | 119 | 0.0 | 1.7 | 0.00 | 0.04 | 0.04 | 90 | 1009.3 |
| 20260510043041 | 48 | 119 | 0.0 | 1.7 | 0.00 | 0.04 | 0.04 | 90 | 1009.3 |
| 20260510042951 | 48 | 221 | 0.0 | 1.7 | 0.00 | 0.04 | 0.04 | 90 | 1009.3 |
| 20260510042912 | 48 | 221 | 0.9 | 1.7 | 0.00 | 0.04 | 0.04 | 90 | 1009.3 |
| 20260510042640 | 48 | 137 | 0.9 | 1.7 | 0.00 | 0.04 | 0.04 | 90 | 1009.4 |
| 20260510042558 | 48 | 221 | 0.9 | 1.7 | 0.00 | 0.04 | 0.04 | 90 | 1009.4 |
| 20260510042512 | 48 | 205 | 0.9 | 1.7 | 0.00 | 0.04 | 0.04 | 90 | 1009.4 |
| 20260510042434 | 48 | 209 | 0.9 | 1.7 | 0.00 | 0.04 | 0.04 | 90 | 1009.4 |
| 20260510042353 | 48 | 221 | 0.0 | 1.7 | 0.00 | 0.04 | 0.04 | 90 | 1009.4 |
| 20260510042310 | 48 | 67 | 0.0 | 1.7 | 0.00 | 0.04 | 0.04 | 90 | 1009.3 |
| 20260510042102 | 48 | 146 | 0.9 | 1.7 | 0.00 | 0.04 | 0.04 | 90 | 1009.3 |
| 20260510041729 | 54 | 51 | 0.9 | 2.6 | 0.01 | 0.04 | 0.04 | 91 | 1009.8 |
| 20260510041715 | 48 | 178 | 0.9 | 1.7 | 0.00 | 0.04 | 0.04 | 90 | 1009.3 |
| 20260510041648 | 54 | 93 | 0.9 | 2.6 | 0.01 | 0.04 | 0.04 | 91 | 1009.8 |
| 20260510041613 | 49 | 146 | 0.9 | 1.7 | 0.00 | 0.04 | 0.04 | 90 | 1009.3 |
| 20260510041547 | 54 | 51 | 0.9 | 3.5 | 0.01 | 0.04 | 0.04 | 91 | 1009.8 |
| 20260510041523 | 54 | 59 | 0.9 | 4.3 | 0.02 | 0.04 | 0.04 | 91 | 1009.8 |
| 20260510041512 | 49 | 51 | 0.9 | 1.7 | 0.00 | 0.04 | 0.04 | 90 | 1009.3 |
| 20260510041446 | 54 | 93 | 1.7 | 4.3 | 0.02 | 0.04 | 0.04 | 91 | 1009.7 |
| 20260510041412 | 49 | 178 | 0.9 | 1.7 | 0.00 | 0.04 | 0.04 | 90 | 1009.3 |
| 20260510041317 | 49 | 212 | 0.0 | 1.7 | 0.00 | 0.04 | 0.04 | 90 | 1009.3 |
| 20260510041237 | 49 | 153 | 0.0 | 1.7 | 0.00 | 0.04 | 0.04 | 90 | 1009.4 |
| 20260510040951 | 49 | 265 | 0.0 | 1.7 | 0.00 | 0.04 | 0.04 | 90 | 1009.4 |
| 20260510040852 | 49 | 265 | 0.9 | 1.7 | 0.00 | 0.04 | 0.04 | 90 | 1009.4 |
| 20260510040810 | 49 | 178 | 0.9 | 1.7 | 0.00 | 0.04 | 0.04 | 90 | 1009.4 |
| 20260510040733 | 49 | 178 | 0.9 | 1.7 | 0.00 | 0.04 | 0.04 | 90 | 1009.4 |
| 20260510040648 | 49 | 105 | 0.0 | 1.7 | 0.00 | 0.04 | 0.04 | 90 | 1009.4 |
| 20260510040437 | 49 | 9 | 0.0 | 1.7 | 0.00 | 0.04 | 0.04 | 90 | 1009.4 |
| 20260510040244 | 49 | 9 | 0.0 | 1.7 | 0.00 | 0.04 | 0.04 | 90 | 1009.4 |
| 20260510040205 | 49 | 221 | 0.0 | 1.7 | 0.00 | 0.04 | 0.04 | 90 | 1009.4 |
| 20260510040119 | 49 | 221 | 0.0 | 1.7 | 0.00 | 0.04 | 0.04 | 90 | 1009.5 |
| 20260510040028 | 49 | 221 | 0.9 | 1.7 | 0.00 | 0.04 | 0.04 | 90 | 1009.5 |
| 20260510035946 | 49 | 178 | 0.9 | 1.7 | 0.00 | 0.04 | 0.04 | 90 | 1009.5 |
| 20260510035730 | 49 | 178 | 0.9 | 1.7 | 0.00 | 0.04 | 0.04 | 90 | 1009.5 |
| 20260510035628 | 49 | 146 | 0.9 | 1.7 | 0.00 | 0.04 | 0.04 | 90 | 1009.5 |
| 20260510035524 | 49 | 126 | 0.9 | 1.7 | 0.00 | 0.04 | 0.04 | 90 | 1009.5 |
| 20260510035421 | 49 | 126 | 0.0 | 1.7 | 0.00 | 0.04 | 0.04 | 90 | 1009.5 |
| 20260510035406 | 55 | 26 | 0.9 | 5.2 | 0.03 | 0.03 | 0.03 | 90 | 1010.0 |
| 20260510035335 | 49 | 161 | 0.9 | 1.7 | 0.00 | 0.04 | 0.04 | 90 | 1009.5 |
| 20260510035306 | 49 | 146 | 0.9 | 1.7 | 0.00 | 0.04 | 0.04 | 90 | 1009.5 |
| 20260510035224 | 49 | 129 | 0.0 | 1.7 | 0.00 | 0.04 | 0.04 | 90 | 1009.5 |
| 20260510035005 | 49 | 325 | 0.9 | 1.7 | 0.00 | 0.04 | 0.04 | 90 | 1009.6 |
| 20260510034934 | 49 | 325 | 0.9 | 1.7 | 0.00 | 0.04 | 0.04 | 90 | 1009.6 |
| 20260510034712 | 49 | 221 | 0.0 | 1.7 | 0.00 | 0.04 | 0.04 | 90 | 1009.5 |
| 20260510034633 | 49 | 9 | 0.0 | 1.7 | 0.00 | 0.04 | 0.04 | 90 | 1009.5 |
| 20260510034209 | 50 | 137 | 0.9 | 1.7 | 0.00 | 0.04 | 0.04 | 90 | 1009.6 |
| 20260510034115 | 50 | 137 | 0.9 | 1.7 | 0.00 | 0.04 | 0.04 | 90 | 1009.5 |
| 20260510034035 | 50 | 196 | 0.9 | 1.7 | 0.00 | 0.04 | 0.04 | 90 | 1009.5 |
| 20260510033955 | 50 | 188 | 0.9 | 1.7 | 0.00 | 0.04 | 0.04 | 90 | 1009.5 |
| 20260510033803 | 50 | 146 | 0.0 | 1.7 | 0.00 | 0.04 | 0.04 | 90 | 1009.6 |
| 20260510033705 | 50 | 153 | 0.9 | 1.7 | 0.00 | 0.04 | 0.04 | 90 | 1009.5 |
| 20260510033625 | 50 | 126 | 0.9 | 1.7 | 0.00 | 0.04 | 0.04 | 90 | 1009.5 |
| 20260510033550 | 50 | 93 | 0.9 | 1.7 | 0.00 | 0.04 | 0.04 | 89 | 1009.5 |
| 20260510033332 | 55 | 119 | 0.9 | 3.5 | 0.03 | 0.03 | 0.03 | 90 | 1010.3 |
| 20260510033255 | 50 | 93 | 0.0 | 1.7 | 0.00 | 0.04 | 0.04 | 89 | 1009.5 |
| 20260510033154 | 50 | 119 | 0.0 | 1.7 | 0.00 | 0.04 | 0.04 | 89 | 1009.6 |
| 20260510033056 | 50 | 126 | 0.0 | 1.7 | 0.00 | 0.04 | 0.04 | 89 | 1009.5 |
| 20260510033030 | 55 | 133 | 1.7 | 4.3 | 0.03 | 0.03 | 0.03 | 89 | 1010.2 |
| 20260510032953 | 50 | 205 | 0.0 | 1.7 | 0.00 | 0.04 | 0.04 | 89 | 1009.6 |
| 20260510032854 | 50 | 232 | 0.0 | 1.7 | 0.00 | 0.04 | 0.04 | 89 | 1009.6 |
| 20260510032839 | 55 | 178 | 1.7 | 4.3 | 0.03 | 0.03 | 0.03 | 89 | 1010.3 |
| 20260510032751 | 50 | 111 | 0.0 | 1.7 | 0.00 | 0.04 | 0.04 | 90 | 1009.6 |
| 20260510032703 | 50 | 111 | 0.0 | 1.7 | 0.00 | 0.04 | 0.04 | 90 | 1009.6 |
| 20260510032624 | 50 | 93 | 0.9 | 1.7 | 0.00 | 0.04 | 0.04 | 90 | 1009.6 |
| 20260510032407 | 50 | 200 | 0.9 | 1.7 | 0.00 | 0.04 | 0.04 | 90 | 1009.6 |
| 20260510032328 | 50 | 196 | 0.9 | 1.7 | 0.00 | 0.04 | 0.04 | 90 | 1009.7 |
| 20260510032246 | 50 | 205 | 0.9 | 1.7 | 0.00 | 0.04 | 0.04 | 90 | 1009.6 |
| 20260510032028 | 51 | 250 | 0.9 | 1.7 | 0.00 | 0.04 | 0.04 | 89 | 1009.7 |
| 20260510031950 | 51 | 221 | 0.9 | 1.7 | 0.00 | 0.04 | 0.04 | 89 | 1009.6 |
| 20260510031858 | 51 | 247 | 0.0 | 1.7 | 0.00 | 0.04 | 0.04 | 89 | 1009.7 |
| 20260510031636 | 51 | 153 | 0.0 | 1.7 | 0.00 | 0.04 | 0.04 | 89 | 1009.7 |
| 20260510031423 | 51 | 221 | 0.0 | 1.7 | 0.00 | 0.04 | 0.04 | 89 | 1009.7 |
| 20260510031229 | 51 | 9 | 0.9 | 1.7 | 0.00 | 0.04 | 0.04 | 89 | 1009.7 |
| 20260510031129 | 51 | 178 | 0.9 | 1.7 | 0.00 | 0.04 | 0.04 | 89 | 1009.7 |
| 20260510031027 | 51 | 212 | 0.9 | 1.7 | 0.00 | 0.04 | 0.04 | 89 | 1009.7 |
| 20260510030937 | 55 | 188 | 1.7 | 2.6 | 0.02 | 0.02 | 0.02 | 88 | 1010.6 |
| 20260510030925 | 51 | 221 | 0.9 | 1.7 | 0.00 | 0.04 | 0.04 | 89 | 1009.7 |
| 20260510030822 | 51 | 221 | 0.9 | 1.7 | 0.00 | 0.04 | 0.04 | 89 | 1009.7 |
| 20260510030724 | 51 | 205 | 1.7 | 1.7 | 0.00 | 0.04 | 0.04 | 89 | 1009.7 |
| 20260510030713 | 55 | 119 | 0.0 | 2.6 | 0.01 | 0.01 | 0.02 | 88 | 1010.7 |
| 20260510030620 | 51 | 200 | 1.7 | 1.7 | 0.00 | 0.04 | 0.04 | 89 | 1009.7 |
| 20260510030533 | 51 | 205 | 0.9 | 1.7 | 0.00 | 0.04 | 0.04 | 89 | 1009.7 |
| 20260510030453 | 51 | 200 | 0.9 | 1.7 | 0.00 | 0.04 | 0.04 | 89 | 1009.7 |
| 20260510030357 | 51 | 196 | 0.9 | 1.7 | 0.00 | 0.04 | 0.04 | 89 | 1009.7 |
| 20260510030305 | 51 | 205 | 0.9 | 1.7 | 0.00 | 0.04 | 0.04 | 89 | 1009.6 |
| 20260510030033 | 51 | 205 | 0.9 | 1.7 | 0.00 | 0.04 | 0.04 | 89 | 1009.7 |
| 20260510025955 | 51 | 205 | 0.0 | 1.7 | 0.00 | 0.04 | 0.04 | 89 | 1009.7 |
| 20260510025913 | 51 | 325 | 0.0 | 1.7 | 0.00 | 0.04 | 0.04 | 89 | 1009.7 |
| 20260510025832 | 51 | 265 | 0.9 | 1.7 | 0.00 | 0.04 | 0.04 | 89 | 1009.7 |
| 20260510025613 | 51 | 301 | 0.9 | 1.7 | 0.00 | 0.04 | 0.04 | 89 | 1009.8 |
| 20260510025351 | 52 | 321 | 0.9 | 1.7 | 0.00 | 0.04 | 0.04 | 89 | 1009.7 |
| 20260510025129 | 52 | 319 | 0.9 | 1.7 | 0.00 | 0.04 | 0.04 | 89 | 1009.8 |
| 20260510025050 | 52 | 325 | 0.9 | 1.7 | 0.00 | 0.04 | 0.04 | 89 | 1009.8 |
| 20260510024807 | 52 | 229 | 0.0 | 1.7 | 0.00 | 0.04 | 0.04 | 89 | 1009.8 |
| 20260510024705 | 52 | 232 | 0.0 | 1.7 | 0.00 | 0.04 | 0.04 | 89 | 1009.7 |
| 20260510024604 | 52 | 334 | 0.9 | 1.7 | 0.00 | 0.04 | 0.04 | 89 | 1009.7 |
| 20260510024521 | 52 | 9 | 0.9 | 1.7 | 0.00 | 0.04 | 0.04 | 89 | 1009.8 |
| 20260510024443 | 52 | 41 | 0.9 | 1.7 | 0.00 | 0.04 | 0.04 | 89 | 1009.7 |
| 20260510024215 | 55 | 265 | 0.9 | 2.6 | 0.00 | 0.00 | 0.00 | 88 | 1010.7 |
| 20260510024159 | 52 | 41 | 0.9 | 1.7 | 0.00 | 0.04 | 0.04 | 89 | 1009.7 |
| 20260510024059 | 52 | 44 | 0.9 | 1.7 | 0.00 | 0.04 | 0.04 | 90 | 1009.7 |
| 20260510024001 | 52 | 44 | 0.9 | 1.7 | 0.00 | 0.04 | 0.04 | 90 | 1009.7 |
| 20260510023932 | 55 | 129 | 0.9 | 5.2 | 0.00 | 0.00 | 0.00 | 87 | 1010.7 |
| 20260510023857 | 52 | 51 | 0.9 | 0.9 | 0.00 | 0.04 | 0.04 | 90 | 1009.7 |
| 20260510023825 | 55 | 59 | 1.7 | 5.2 | 0.00 | 0.00 | 0.00 | 87 | 1010.6 |
| 20260510023758 | 52 | 26 | 0.9 | 0.9 | 0.00 | 0.04 | 0.04 | 90 | 1009.7 |
| 20260510023723 | 55 | 56 | 3.5 | 5.2 | 0.00 | 0.00 | 0.00 | 87 | 1010.5 |
| 20260510023704 | 52 | 51 | 0.0 | 0.9 | 0.00 | 0.04 | 0.04 | 90 | 1009.6 |
| 20260510023621 | 53 | 41 | 0.0 | 0.9 | 0.00 | 0.04 | 0.04 | 90 | 1009.7 |
| 20260510023359 | 55 | 79 | 1.7 | 2.6 | 0.00 | 0.00 | 0.00 | 87 | 1010.6 |
| 20260510023332 | 53 | 137 | 0.0 | 0.9 | 0.00 | 0.04 | 0.04 | 90 | 1009.7 |
| 20260510023232 | 53 | 196 | 0.0 | 0.9 | 0.00 | 0.04 | 0.04 | 90 | 1009.7 |
| 20260510023210 | 55 | 93 | 0.9 | 3.5 | 0.00 | 0.00 | 0.00 | 87 | 1010.6 |
| 20260510023129 | 53 | 196 | 0.0 | 0.9 | 0.00 | 0.04 | 0.04 | 90 | 1009.7 |
| 20260510023053 | 53 | 196 | 0.0 | 0.9 | 0.01 | 0.04 | 0.04 | 90 | 1009.7 |
| 20260510022833 | 53 | 196 | 0.0 | 0.9 | 0.01 | 0.04 | 0.04 | 90 | 1009.7 |
| 20260510022752 | 53 | 67 | 0.0 | 0.9 | 0.01 | 0.04 | 0.04 | 90 | 1009.8 |
| 20260510022610 | 53 | 67 | 0.0 | 0.9 | 0.01 | 0.04 | 0.04 | 90 | 1009.8 |
| 20260510022510 | 53 | 51 | 0.9 | 0.9 | 0.01 | 0.04 | 0.04 | 90 | 1009.8 |
| 20260510022434 | 55 | 205 | 1.7 | 3.5 | 0.00 | 0.00 | 0.00 | 87 | 1010.7 |
| 20260510022407 | 53 | 51 | 0.0 | 0.9 | 0.01 | 0.04 | 0.04 | 90 | 1009.7 |
| 20260510022357 | 55 | 133 | 1.7 | 3.5 | 0.00 | 0.00 | 0.00 | 87 | 1010.6 |
| 20260510022306 | 53 | 61 | 0.0 | 0.9 | 0.01 | 0.04 | 0.04 | 90 | 1009.7 |
| 20260510022205 | 53 | 67 | 0.0 | 1.7 | 0.01 | 0.04 | 0.04 | 90 | 1009.7 |
| 20260510022152 | 55 | 105 | 1.7 | 4.3 | 0.00 | 0.00 | 0.00 | 86 | 1010.6 |
| 20260510022103 | 53 | 119 | 0.0 | 1.7 | 0.01 | 0.04 | 0.04 | 90 | 1009.7 |
| 20260510022003 | 53 | 247 | 0.0 | 1.7 | 0.01 | 0.04 | 0.04 | 90 | 1009.7 |
| 20260510021924 | 55 | 142 | 1.7 | 5.2 | 0.00 | 0.00 | 0.00 | 86 | 1010.7 |
| 20260510021902 | 53 | 247 | 0.0 | 1.7 | 0.01 | 0.04 | 0.04 | 90 | 1009.7 |
| 20260510021838 | 55 | 173 | 1.7 | 5.2 | 0.00 | 0.00 | 0.00 | 87 | 1010.7 |
| 20260510021756 | 53 | 221 | 0.0 | 1.7 | 0.01 | 0.04 | 0.04 | 90 | 1009.7 |
| 20260510021656 | 53 | 212 | 0.0 | 1.7 | 0.01 | 0.04 | 0.04 | 90 | 1009.7 |
| 20260510021611 | 53 | 221 | 0.0 | 1.7 | 0.01 | 0.04 | 0.04 | 90 | 1009.7 |
| 20260510021523 | 53 | 309 | 0.9 | 2.6 | 0.01 | 0.04 | 0.04 | 90 | 1009.7 |
| 20260510021244 | 53 | 291 | 0.9 | 2.6 | 0.01 | 0.04 | 0.04 | 90 | 1009.7 |
| 20260510021142 | 53 | 298 | 0.9 | 2.6 | 0.01 | 0.04 | 0.04 | 90 | 1009.7 |
| 20260510021048 | 53 | 279 | 0.9 | 2.6 | 0.01 | 0.04 | 0.04 | 90 | 1009.7 |
| 20260510020954 | 54 | 316 | 0.9 | 2.6 | 0.01 | 0.04 | 0.04 | 90 | 1009.7 |
| 20260510020912 | 54 | 341 | 1.7 | 2.6 | 0.01 | 0.04 | 0.04 | 90 | 1009.7 |
| 20260510020829 | 54 | 334 | 1.7 | 2.6 | 0.01 | 0.04 | 0.04 | 90 | 1009.7 |
| 20260510020605 | 54 | 329 | 1.7 | 1.7 | 0.01 | 0.04 | 0.04 | 90 | 1009.7 |
| 20260510020526 | 54 | 329 | 0.9 | 1.7 | 0.01 | 0.04 | 0.04 | 90 | 1009.8 |
| 20260510020444 | 54 | 309 | 0.0 | 1.7 | 0.01 | 0.04 | 0.04 | 91 | 1009.7 |
| 20260510020227 | 54 | 119 | 0.0 | 1.7 | 0.01 | 0.04 | 0.04 | 91 | 1009.7 |
| 20260510020151 | 54 | 119 | 0.0 | 1.7 | 0.01 | 0.04 | 0.04 | 91 | 1009.7 |
| 20260510020109 | 54 | 119 | 0.0 | 1.7 | 0.01 | 0.04 | 0.04 | 91 | 1009.7 |
| 20260510020020 | 54 | 119 | 0.0 | 1.7 | 0.01 | 0.04 | 0.04 | 91 | 1009.7 |
| 20260510015939 | 54 | 51 | 0.9 | 1.7 | 0.01 | 0.04 | 0.04 | 91 | 1009.7 |
| 20260510015857 | 54 | 34 | 0.9 | 1.7 | 0.01 | 0.04 | 0.04 | 91 | 1009.7 |
| 20260510015815 | 54 | 61 | 0.9 | 1.7 | 0.01 | 0.04 | 0.04 | 91 | 1009.7 |
| 20260510015740 | 54 | 51 | 0.9 | 1.7 | 0.01 | 0.04 | 0.04 | 91 | 1009.7 |
| 20260510015515 | 54 | 67 | 0.9 | 2.6 | 0.01 | 0.04 | 0.04 | 91 | 1009.7 |
| 20260510015113 | 54 | 22 | 0.9 | 2.6 | 0.01 | 0.04 | 0.04 | 91 | 1009.7 |
| 20260510014511 | 54 | 72 | 1.7 | 4.3 | 0.02 | 0.04 | 0.04 | 91 | 1009.7 |
| 20260510014434 | 56 | 119 | 1.7 | 4.3 | 0.00 | 0.00 | 0.00 | 86 | 1010.9 |
| 20260510014407 | 54 | 51 | 1.7 | 4.3 | 0.02 | 0.04 | 0.04 | 91 | 1009.7 |
| 20260510014308 | 54 | 63 | 1.7 | 4.3 | 0.02 | 0.04 | 0.04 | 91 | 1009.7 |
| 20260510014206 | 54 | 22 | 1.7 | 4.3 | 0.02 | 0.04 | 0.04 | 91 | 1009.7 |
| 20260510014104 | 54 | 54 | 1.7 | 4.3 | 0.03 | 0.04 | 0.04 | 91 | 1009.7 |
| 20260510014005 | 54 | 51 | 2.6 | 4.3 | 0.03 | 0.04 | 0.04 | 91 | 1009.7 |
| 20260510013927 | 54 | 74 | 3.5 | 4.3 | 0.03 | 0.04 | 0.04 | 91 | 1009.7 |
| 20260510013846 | 54 | 59 | 2.6 | 4.3 | 0.04 | 0.04 | 0.04 | 90 | 1009.7 |
| 20260510013803 | 54 | 65 | 1.7 | 4.3 | 0.04 | 0.04 | 0.04 | 90 | 1009.8 |
| 20260510013543 | 54 | 34 | 1.7 | 4.3 | 0.04 | 0.04 | 0.04 | 90 | 1009.8 |
| 20260510013319 | 54 | 19 | 1.7 | 4.3 | 0.04 | 0.04 | 0.04 | 90 | 1009.9 |
| 20260510013238 | 54 | 49 | 1.7 | 4.3 | 0.04 | 0.04 | 0.04 | 90 | 1009.9 |
| 20260510013046 | 54 | 59 | 1.7 | 4.3 | 0.04 | 0.04 | 0.04 | 90 | 1009.9 |
| 20260510013011 | 56 | 54 | 1.7 | 5.2 | 0.00 | 0.00 | 0.00 | 86 | 1010.9 |
| 20260510012945 | 54 | 19 | 1.7 | 4.3 | 0.03 | 0.03 | 0.03 | 90 | 1009.9 |
| 20260510012844 | 54 | 44 | 2.6 | 4.3 | 0.03 | 0.03 | 0.03 | 90 | 1009.8 |
| 20260510012744 | 54 | 36 | 2.6 | 4.3 | 0.03 | 0.03 | 0.03 | 90 | 1009.9 |
| 20260510012644 | 54 | 33 | 1.7 | 5.2 | 0.03 | 0.03 | 0.03 | 90 | 1009.9 |
| 20260510012623 | 56 | 106 | 1.7 | 5.2 | 0.00 | 0.00 | 0.00 | 86 | 1011.0 |
| 20260510012500 | 55 | 82 | 1.7 | 5.2 | 0.03 | 0.03 | 0.03 | 90 | 1009.9 |
| 20260510012420 | 55 | 115 | 0.9 | 5.2 | 0.03 | 0.03 | 0.03 | 90 | 1010.0 |
| 20260510012212 | 56 | 87 | 1.7 | 5.2 | 0.00 | 0.00 | 0.00 | 86 | 1011.0 |
| 20260510012148 | 56 | 111 | 1.7 | 5.2 | 0.00 | 0.00 | 0.00 | 86 | 1011.0 |
| 20260510012135 | 55 | 221 | 0.9 | 5.2 | 0.03 | 0.03 | 0.03 | 90 | 1009.9 |
| 20260510012034 | 55 | 149 | 0.9 | 5.2 | 0.03 | 0.03 | 0.03 | 90 | 1010.0 |
| 20260510011955 | 55 | 111 | 1.7 | 5.2 | 0.03 | 0.03 | 0.03 | 90 | 1010.0 |
| 20260510011913 | 55 | 78 | 1.7 | 5.2 | 0.03 | 0.03 | 0.03 | 90 | 1010.1 |
| 20260510011642 | 56 | 130 | 2.6 | 8.7 | 0.00 | 0.00 | 0.00 | 86 | 1011.0 |
| 20260510011629 | 55 | 119 | 0.9 | 3.5 | 0.03 | 0.03 | 0.03 | 90 | 1010.1 |
| 20260510011544 | 55 | 178 | 0.0 | 3.5 | 0.03 | 0.03 | 0.03 | 90 | 1010.1 |
| 20260510011508 | 55 | 178 | 0.0 | 3.5 | 0.03 | 0.03 | 0.03 | 90 | 1010.2 |
| 20260510011225 | 55 | 291 | 0.9 | 3.5 | 0.03 | 0.03 | 0.03 | 89 | 1010.2 |
| 20260510011146 | 56 | 109 | 2.6 | 8.7 | 0.00 | 0.00 | 0.00 | 86 | 1010.9 |
| 20260510011123 | 55 | 198 | 0.9 | 3.5 | 0.03 | 0.03 | 0.03 | 89 | 1010.3 |
| 20260510011024 | 55 | 178 | 0.9 | 3.5 | 0.03 | 0.03 | 0.03 | 89 | 1010.2 |
| 20260510010924 | 55 | 178 | 1.7 | 3.5 | 0.03 | 0.03 | 0.03 | 89 | 1010.2 |
| 20260510010837 | 55 | 146 | 1.7 | 3.5 | 0.03 | 0.03 | 0.03 | 89 | 1010.2 |
| 20260510010753 | 55 | 178 | 1.7 | 4.3 | 0.03 | 0.03 | 0.03 | 89 | 1010.2 |
| 20260510010713 | 55 | 171 | 1.7 | 4.3 | 0.03 | 0.03 | 0.03 | 89 | 1010.2 |
| 20260510010415 | 55 | 119 | 1.7 | 4.3 | 0.03 | 0.03 | 0.03 | 89 | 1010.3 |
| 20260510010316 | 55 | 153 | 1.7 | 4.3 | 0.03 | 0.03 | 0.03 | 89 | 1010.3 |
| 20260510010233 | 55 | 157 | 1.7 | 4.3 | 0.03 | 0.03 | 0.03 | 89 | 1010.3 |
| 20260510010153 | 55 | 137 | 1.7 | 4.3 | 0.03 | 0.03 | 0.03 | 89 | 1010.3 |
| 20260510005938 | 56 | 111 | 5.2 | 10.4 | 0.00 | 0.00 | 0.00 | 86 | 1011.0 |
| 20260510005912 | 55 | 113 | 1.7 | 4.3 | 0.03 | 0.03 | 0.03 | 89 | 1010.3 |
| 20260510005832 | 55 | 128 | 0.9 | 4.3 | 0.03 | 0.03 | 0.03 | 89 | 1010.3 |
| 20260510005747 | 55 | 137 | 0.9 | 1.7 | 0.03 | 0.03 | 0.03 | 89 | 1010.3 |
| 20260510005504 | 55 | 111 | 0.0 | 2.6 | 0.03 | 0.03 | 0.03 | 89 | 1010.4 |
| 20260510005402 | 55 | 221 | 0.0 | 2.6 | 0.03 | 0.03 | 0.03 | 89 | 1010.4 |
| 20260510005306 | 55 | 221 | 0.0 | 2.6 | 0.03 | 0.03 | 0.03 | 89 | 1010.5 |
| 20260510005252 | 56 | 134 | 4.3 | 9.6 | 0.00 | 0.00 | 0.00 | 87 | 1010.9 |
| 20260510005223 | 56 | 102 | 6.1 | 9.6 | 0.00 | 0.00 | 0.00 | 87 | 1010.9 |
| 20260510005200 | 55 | 126 | 0.0 | 2.6 | 0.03 | 0.03 | 0.03 | 89 | 1010.5 |
| 20260510005057 | 55 | 126 | 0.9 | 2.6 | 0.03 | 0.03 | 0.03 | 89 | 1010.5 |
| 20260510005018 | 57 | 65 | 2.6 | 7.0 | 0.00 | 0.00 | 0.00 | 87 | 1010.9 |
| 20260510004957 | 55 | 247 | 0.9 | 2.6 | 0.03 | 0.03 | 0.03 | 89 | 1010.6 |
| 20260510004913 | 55 | 221 | 0.9 | 2.6 | 0.03 | 0.03 | 0.03 | 88 | 1010.6 |
| 20260510004833 | 55 | 221 | 0.9 | 2.6 | 0.03 | 0.03 | 0.03 | 88 | 1010.6 |
| 20260510004751 | 55 | 178 | 0.9 | 2.6 | 0.02 | 0.02 | 0.03 | 88 | 1010.6 |
| 20260510004529 | 55 | 119 | 1.7 | 2.6 | 0.02 | 0.02 | 0.02 | 88 | 1010.6 |
| 20260510004340 | 55 | 102 | 1.7 | 2.6 | 0.02 | 0.02 | 0.02 | 88 | 1010.5 |
| 20260510004257 | 55 | 126 | 0.9 | 2.6 | 0.02 | 0.02 | 0.02 | 88 | 1010.6 |
| 20260510004215 | 55 | 128 | 0.9 | 2.6 | 0.02 | 0.02 | 0.02 | 88 | 1010.6 |
| 20260510003932 | 55 | 178 | 0.0 | 2.6 | 0.01 | 0.01 | 0.01 | 88 | 1010.7 |
| 20260510003831 | 55 | 93 | 0.9 | 2.6 | 0.00 | 0.00 | 0.01 | 88 | 1010.7 |
| 20260510003813 | 57 | 153 | 0.9 | 5.2 | 0.00 | 0.00 | 0.00 | 87 | 1010.8 |
| 20260510003731 | 55 | 129 | 0.9 | 2.6 | 0.00 | 0.00 | 0.00 | 88 | 1010.7 |
| 20260510003650 | 57 | 121 | 2.6 | 7.0 | 0.00 | 0.00 | 0.00 | 87 | 1010.8 |
| 20260510003623 | 55 | 80 | 1.7 | 2.6 | 0.00 | 0.00 | 0.00 | 88 | 1010.8 |
| 20260510003521 | 55 | 87 | 0.9 | 2.6 | 0.00 | 0.00 | 0.00 | 88 | 1010.7 |
| 20260510003421 | 55 | 93 | 0.9 | 1.7 | 0.00 | 0.00 | 0.00 | 88 | 1010.7 |
| 20260510003324 | 55 | 93 | 0.9 | 2.6 | 0.00 | 0.00 | 0.00 | 88 | 1010.8 |
| 20260510003245 | 55 | 93 | 0.0 | 2.6 | 0.00 | 0.00 | 0.00 | 88 | 1010.8 |
| 20260510003204 | 55 | 161 | 0.0 | 2.6 | 0.00 | 0.00 | 0.00 | 88 | 1010.8 |
| 20260510003013 | 55 | 137 | 0.0 | 2.6 | 0.00 | 0.00 | 0.00 | 88 | 1010.8 |
| 20260510002910 | 55 | 232 | 0.0 | 2.6 | 0.00 | 0.00 | 0.00 | 88 | 1010.8 |
| 20260510002809 | 55 | 232 | 0.9 | 2.6 | 0.00 | 0.00 | 0.00 | 88 | 1010.8 |
| 20260510002741 | 57 | 111 | 4.3 | 8.7 | 0.00 | 0.00 | 0.00 | 86 | 1010.8 |
| 20260510002708 | 55 | 221 | 0.9 | 2.6 | 0.00 | 0.00 | 0.00 | 88 | 1010.8 |
| 20260510002608 | 55 | 218 | 0.9 | 2.6 | 0.00 | 0.00 | 0.00 | 88 | 1010.8 |
| 20260510002522 | 55 | 221 | 0.9 | 2.6 | 0.00 | 0.00 | 0.00 | 88 | 1010.8 |
| 20260510002443 | 55 | 212 | 0.9 | 2.6 | 0.00 | 0.00 | 0.00 | 88 | 1010.8 |
| 20260510002155 | 55 | 265 | 0.9 | 3.5 | 0.00 | 0.00 | 0.00 | 88 | 1010.7 |
| 20260510002139 | 57 | 85 | 3.5 | 7.0 | 0.00 | 0.00 | 0.00 | 86 | 1010.8 |
| 20260510002054 | 55 | 243 | 0.9 | 3.5 | 0.00 | 0.00 | 0.00 | 88 | 1010.6 |
| 20260510002011 | 55 | 254 | 0.9 | 5.2 | 0.00 | 0.00 | 0.00 | 87 | 1010.7 |
| 20260510001931 | 55 | 238 | 0.0 | 5.2 | 0.00 | 0.00 | 0.00 | 87 | 1010.6 |
| 20260510001840 | 55 | 161 | 0.0 | 5.2 | 0.00 | 0.00 | 0.00 | 87 | 1010.7 |
| 20260510001621 | 55 | 137 | 1.7 | 5.2 | 0.00 | 0.00 | 0.00 | 87 | 1010.6 |
| 20260510001541 | 55 | 55 | 1.7 | 5.2 | 0.00 | 0.00 | 0.00 | 87 | 1010.6 |
| 20260510001317 | 55 | 71 | 2.6 | 5.2 | 0.00 | 0.00 | 0.00 | 87 | 1010.5 |
| 20260510001053 | 55 | 86 | 2.6 | 5.2 | 0.00 | 0.00 | 0.00 | 87 | 1010.5 |
| 20260510001014 | 55 | 76 | 1.7 | 2.6 | 0.00 | 0.00 | 0.00 | 87 | 1010.5 |
| 20260510000738 | 55 | 93 | 1.7 | 3.5 | 0.00 | 0.00 | 0.00 | 87 | 1010.6 |
| 20260510000655 | 55 | 119 | 1.7 | 3.5 | 0.00 | 0.00 | 0.00 | 87 | 1010.5 |
| 20260510000612 | 55 | 93 | 1.7 | 3.5 | 0.00 | 0.00 | 0.00 | 87 | 1010.7 |
| 20260510000532 | 55 | 165 | 1.7 | 3.5 | 0.00 | 0.00 | 0.00 | 87 | 1010.6 |
| 20260510000455 | 55 | 137 | 1.7 | 3.5 | 0.00 | 0.00 | 0.00 | 87 | 1010.6 |
| 20260510000218 | 55 | 143 | 0.9 | 3.5 | 0.00 | 0.00 | 0.00 | 87 | 1010.7 |
| 20260510000137 | 55 | 178 | 1.7 | 3.5 | 0.00 | 0.00 | 0.00 | 87 | 1010.7 |
| 20260509235907 | 55 | 146 | 1.7 | 3.5 | 0.00 | 0.00 | 0.00 | 87 | 1010.7 |
| 20260509235824 | 55 | 149 | 1.7 | 3.5 | 0.00 | 0.00 | 0.00 | 87 | 1010.6 |
| 20260509235742 | 55 | 140 | 0.9 | 3.5 | 0.00 | 0.00 | 0.00 | 87 | 1010.6 |
| 20260509235327 | 55 | 119 | 0.9 | 3.5 | 0.00 | 0.00 | 0.00 | 87 | 1010.7 |
| 20260509235243 | 55 | 111 | 0.9 | 3.5 | 0.00 | 0.00 | 0.00 | 87 | 1010.6 |
| 20260509235204 | 55 | 195 | 0.9 | 4.3 | 0.00 | 0.00 | 0.00 | 87 | 1010.6 |
| 20260509235123 | 55 | 131 | 1.7 | 4.3 | 0.00 | 0.00 | 0.00 | 86 | 1010.6 |
| 20260509234857 | 55 | 165 | 1.7 | 4.3 | 0.00 | 0.00 | 0.00 | 86 | 1010.6 |
| 20260509234708 | 55 | 93 | 1.7 | 4.3 | 0.00 | 0.00 | 0.00 | 86 | 1010.6 |
| 20260509234623 | 55 | 134 | 1.7 | 4.3 | 0.00 | 0.00 | 0.00 | 86 | 1010.6 |
| 20260509234544 | 55 | 105 | 1.7 | 4.3 | 0.00 | 0.00 | 0.00 | 86 | 1010.6 |
| 20260509234457 | 55 | 137 | 1.7 | 5.2 | 0.00 | 0.00 | 0.00 | 86 | 1010.7 |
| 20260509234236 | 55 | 188 | 1.7 | 5.2 | 0.00 | 0.00 | 0.00 | 86 | 1010.7 |
| 20260509233956 | 55 | 161 | 1.7 | 5.2 | 0.00 | 0.00 | 0.00 | 87 | 1010.7 |
| 20260509233919 | 58 | 130 | 3.5 | 11.3 | 0.00 | 0.00 | 0.00 | 85 | 1010.3 |
| 20260509233854 | 55 | 161 | 1.7 | 5.2 | 0.00 | 0.00 | 0.00 | 86 | 1010.7 |
| 20260509233834 | 58 | 123 | 3.5 | 11.3 | 0.00 | 0.00 | 0.00 | 85 | 1010.3 |
| 20260509233757 | 56 | 124 | 1.7 | 5.2 | 0.00 | 0.00 | 0.00 | 86 | 1010.7 |
| 20260509233714 | 56 | 123 | 2.6 | 5.2 | 0.00 | 0.00 | 0.00 | 86 | 1010.7 |
| 20260509233631 | 56 | 101 | 2.6 | 5.2 | 0.00 | 0.00 | 0.00 | 86 | 1010.6 |
| 20260509233541 | 56 | 101 | 1.7 | 3.5 | 0.00 | 0.00 | 0.00 | 86 | 1010.6 |
| 20260509233343 | 56 | 165 | 1.7 | 3.5 | 0.00 | 0.00 | 0.00 | 86 | 1010.7 |
| 20260509233301 | 58 | 70 | 6.1 | 11.3 | 0.00 | 0.00 | 0.00 | 85 | 1010.2 |
| 20260509233240 | 56 | 137 | 1.7 | 2.6 | 0.00 | 0.00 | 0.00 | 86 | 1010.7 |
| 20260509233144 | 56 | 82 | 1.7 | 2.6 | 0.00 | 0.00 | 0.00 | 86 | 1010.7 |
| 20260509233053 | 58 | 48 | 1.7 | 10.4 | 0.00 | 0.00 | 0.00 | 85 | 1010.2 |
| 20260509233040 | 56 | 93 | 1.7 | 5.2 | 0.00 | 0.00 | 0.00 | 86 | 1010.7 |
| 20260509232940 | 56 | 105 | 1.7 | 5.2 | 0.00 | 0.00 | 0.00 | 86 | 1010.7 |
| 20260509232838 | 56 | 111 | 1.7 | 5.2 | 0.00 | 0.00 | 0.00 | 86 | 1010.8 |
| 20260509232736 | 56 | 85 | 1.7 | 5.2 | 0.00 | 0.00 | 0.00 | 86 | 1010.8 |
| 20260509232719 | 58 | 100 | 4.3 | 13.0 | 0.00 | 0.00 | 0.00 | 84 | 1010.1 |
| 20260509232637 | 56 | 132 | 1.7 | 5.2 | 0.00 | 0.00 | 0.00 | 86 | 1010.8 |
| 20260509232536 | 56 | 128 | 0.9 | 5.2 | 0.00 | 0.00 | 0.00 | 86 | 1010.8 |
| 20260509232435 | 56 | 178 | 0.9 | 5.2 | 0.00 | 0.00 | 0.00 | 86 | 1010.9 |
| 20260509232352 | 56 | 144 | 1.7 | 5.2 | 0.00 | 0.00 | 0.00 | 86 | 1010.8 |
| 20260509232310 | 56 | 131 | 1.7 | 5.2 | 0.00 | 0.00 | 0.00 | 86 | 1010.8 |
| 20260509232228 | 56 | 121 | 1.7 | 3.5 | 0.00 | 0.00 | 0.00 | 86 | 1010.8 |
| 20260509232149 | 56 | 102 | 1.7 | 3.5 | 0.00 | 0.00 | 0.00 | 86 | 1010.8 |
| 20260509231920 | 56 | 61 | 1.7 | 4.3 | 0.00 | 0.00 | 0.00 | 86 | 1010.8 |
| 20260509231724 | 56 | 93 | 1.7 | 4.3 | 0.00 | 0.00 | 0.00 | 86 | 1010.8 |
| 20260509231623 | 56 | 93 | 1.7 | 4.3 | 0.00 | 0.00 | 0.00 | 86 | 1010.8 |
| 20260509231533 | 56 | 93 | 1.7 | 4.3 | 0.00 | 0.00 | 0.00 | 86 | 1010.8 |
| 20260509231419 | 56 | 98 | 1.7 | 4.3 | 0.00 | 0.00 | 0.00 | 86 | 1010.9 |
| 20260509231335 | 59 | 86 | 8.7 | 14.8 | 0.00 | 0.00 | 0.00 | 82 | 1009.9 |
| 20260509231317 | 56 | 76 | 1.7 | 4.3 | 0.00 | 0.00 | 0.00 | 86 | 1010.8 |
| 20260509231226 | 56 | 111 | 1.7 | 4.3 | 0.00 | 0.00 | 0.00 | 86 | 1010.9 |
| 20260509231144 | 56 | 105 | 1.7 | 4.3 | 0.00 | 0.00 | 0.00 | 86 | 1010.9 |
| 20260509231104 | 56 | 76 | 1.7 | 4.3 | 0.00 | 0.00 | 0.00 | 86 | 1010.9 |
| 20260509231016 | 56 | 132 | 1.7 | 4.3 | 0.00 | 0.00 | 0.00 | 86 | 1010.9 |
| 20260509230751 | 56 | 71 | 1.7 | 4.3 | 0.00 | 0.00 | 0.00 | 86 | 1010.9 |
| 20260509230507 | 56 | 63 | 2.6 | 5.2 | 0.00 | 0.00 | 0.00 | 86 | 1010.9 |
| 20260509230408 | 56 | 100 | 2.6 | 5.2 | 0.00 | 0.00 | 0.00 | 86 | 1010.9 |
| 20260509230319 | 56 | 77 | 1.7 | 5.2 | 0.00 | 0.00 | 0.00 | 86 | 1010.9 |
| 20260509230237 | 56 | 103 | 1.7 | 5.2 | 0.00 | 0.00 | 0.00 | 86 | 1010.9 |
| 20260509230142 | 56 | 72 | 1.7 | 5.2 | 0.00 | 0.00 | 0.00 | 86 | 1010.9 |
| 20260509230004 | 56 | 124 | 1.7 | 5.2 | 0.00 | 0.00 | 0.00 | 86 | 1011.0 |
| 20260509225923 | 56 | 126 | 2.6 | 5.2 | 0.00 | 0.00 | 0.00 | 86 | 1010.9 |
| 20260509225658 | 56 | 79 | 1.7 | 5.2 | 0.00 | 0.00 | 0.00 | 86 | 1011.0 |
| 20260509225616 | 56 | 93 | 2.6 | 5.2 | 0.00 | 0.00 | 0.00 | 86 | 1011.0 |
| 20260509225208 | 59 | 72 | 5.2 | 13.9 | 0.00 | 0.00 | 0.00 | 82 | 1009.9 |
| 20260509225151 | 56 | 80 | 1.7 | 5.2 | 0.00 | 0.00 | 0.00 | 86 | 1011.0 |
| 20260509225101 | 59 | 121 | 7.8 | 13.9 | 0.00 | 0.00 | 0.00 | 81 | 1009.9 |
| 20260509225049 | 56 | 134 | 1.7 | 5.2 | 0.00 | 0.00 | 0.00 | 86 | 1011.1 |
| 20260509225008 | 56 | 137 | 1.7 | 8.7 | 0.00 | 0.00 | 0.00 | 86 | 1011.0 |
| 20260509224928 | 56 | 93 | 1.7 | 8.7 | 0.00 | 0.00 | 0.00 | 86 | 1011.0 |
| 20260509224703 | 56 | 141 | 3.5 | 8.7 | 0.00 | 0.00 | 0.00 | 86 | 1011.0 |
| 20260509224621 | 56 | 119 | 3.5 | 8.7 | 0.00 | 0.00 | 0.00 | 86 | 1010.9 |
| 20260509224340 | 56 | 78 | 2.6 | 8.7 | 0.00 | 0.00 | 0.00 | 86 | 1010.9 |
| 20260509224239 | 56 | 74 | 3.5 | 8.7 | 0.00 | 0.00 | 0.00 | 86 | 1010.9 |
| 20260509224137 | 56 | 88 | 5.2 | 11.3 | 0.00 | 0.00 | 0.00 | 86 | 1010.9 |
| 20260509224114 | 59 | 109 | 5.2 | 13.9 | 0.00 | 0.00 | 0.00 | 81 | 1009.8 |
| 20260509224037 | 56 | 101 | 5.2 | 11.3 | 0.00 | 0.00 | 0.00 | 86 | 1010.9 |
| 20260509223937 | 56 | 93 | 4.3 | 11.3 | 0.00 | 0.00 | 0.00 | 86 | 1010.9 |
| 20260509223921 | 59 | 109 | 6.1 | 13.9 | 0.00 | 0.00 | 0.00 | 80 | 1009.9 |
| 20260509223835 | 56 | 63 | 3.5 | 11.3 | 0.00 | 0.00 | 0.00 | 86 | 1010.9 |
| 20260509223734 | 56 | 114 | 3.5 | 11.3 | 0.00 | 0.00 | 0.00 | 86 | 1011.0 |
| 20260509223633 | 56 | 107 | 3.5 | 11.3 | 0.00 | 0.00 | 0.00 | 86 | 1011.0 |
| 20260509223531 | 56 | 93 | 4.3 | 11.3 | 0.00 | 0.00 | 0.00 | 86 | 1011.0 |
| 20260509223511 | 59 | 86 | 4.3 | 9.6 | 0.00 | 0.00 | 0.00 | 79 | 1009.7 |
| 20260509223433 | 56 | 100 | 5.2 | 11.3 | 0.00 | 0.00 | 0.00 | 86 | 1011.0 |
| 20260509223349 | 56 | 88 | 6.1 | 11.3 | 0.00 | 0.00 | 0.00 | 86 | 1011.0 |
| 20260509223309 | 56 | 100 | 6.1 | 11.3 | 0.00 | 0.00 | 0.00 | 86 | 1011.0 |
| 20260509223026 | 56 | 79 | 6.1 | 10.4 | 0.00 | 0.00 | 0.00 | 86 | 1011.1 |
| 20260509222925 | 56 | 100 | 7.0 | 10.4 | 0.00 | 0.00 | 0.00 | 86 | 1011.0 |
| 20260509222855 | 60 | 113 | 6.1 | 10.4 | 0.00 | 0.00 | 0.00 | 78 | 1009.6 |
| 20260509222823 | 56 | 76 | 5.2 | 9.6 | 0.00 | 0.00 | 0.00 | 87 | 1011.0 |
| 20260509222723 | 56 | 93 | 3.5 | 9.6 | 0.00 | 0.00 | 0.00 | 87 | 1011.1 |
| 20260509222652 | 60 | 67 | 4.3 | 11.3 | 0.00 | 0.00 | 0.00 | 77 | 1009.5 |
| 20260509222620 | 56 | 133 | 3.5 | 9.6 | 0.00 | 0.00 | 0.00 | 87 | 1011.0 |
| 20260509222538 | 56 | 131 | 4.3 | 9.6 | 0.00 | 0.00 | 0.00 | 87 | 1011.1 |
| 20260509222458 | 56 | 109 | 4.3 | 9.6 | 0.00 | 0.00 | 0.00 | 87 | 1011.0 |
| 20260509222415 | 56 | 144 | 3.5 | 9.6 | 0.00 | 0.00 | 0.00 | 87 | 1010.9 |
| 20260509222336 | 56 | 79 | 3.5 | 9.6 | 0.00 | 0.00 | 0.00 | 87 | 1011.0 |
| 20260509221922 | 56 | 99 | 5.2 | 9.6 | 0.00 | 0.00 | 0.00 | 87 | 1010.9 |
| 20260509221840 | 56 | 79 | 3.5 | 9.6 | 0.00 | 0.00 | 0.00 | 87 | 1010.9 |
| 20260509221758 | 56 | 67 | 3.5 | 7.0 | 0.00 | 0.00 | 0.00 | 87 | 1010.9 |
| 20260509221718 | 56 | 109 | 3.5 | 7.0 | 0.00 | 0.00 | 0.00 | 87 | 1010.9 |
| 20260509221636 | 57 | 83 | 3.5 | 7.0 | 0.00 | 0.00 | 0.00 | 87 | 1010.9 |
| 20260509221231 | 57 | 65 | 1.7 | 3.5 | 0.00 | 0.00 | 0.00 | 87 | 1010.9 |
| 20260509221150 | 57 | 85 | 1.7 | 5.2 | 0.00 | 0.00 | 0.00 | 87 | 1010.9 |
| 20260509220959 | 57 | 57 | 1.7 | 5.2 | 0.00 | 0.00 | 0.00 | 87 | 1010.9 |
| 20260509220903 | 57 | 168 | 1.7 | 5.2 | 0.00 | 0.00 | 0.00 | 87 | 1010.8 |
| 20260509220821 | 57 | 188 | 1.7 | 5.2 | 0.00 | 0.00 | 0.00 | 87 | 1010.8 |
| 20260509220740 | 57 | 171 | 0.9 | 5.2 | 0.00 | 0.00 | 0.00 | 87 | 1010.9 |
| 20260509220508 | 57 | 137 | 1.7 | 5.2 | 0.00 | 0.00 | 0.00 | 87 | 1010.9 |
| 20260509220418 | 57 | 59 | 2.6 | 5.2 | 0.00 | 0.00 | 0.00 | 87 | 1010.9 |
| 20260509220338 | 57 | 61 | 2.6 | 7.0 | 0.00 | 0.00 | 0.00 | 87 | 1010.9 |
| 20260509220053 | 57 | 114 | 2.6 | 7.0 | 0.00 | 0.00 | 0.00 | 86 | 1010.9 |
| 20260509215951 | 57 | 99 | 2.6 | 7.0 | 0.00 | 0.00 | 0.00 | 86 | 1010.8 |
| 20260509215849 | 57 | 106 | 1.7 | 7.0 | 0.00 | 0.00 | 0.00 | 86 | 1010.8 |
| 20260509215829 | 60 | 67 | 2.6 | 7.0 | 0.00 | 0.00 | 0.00 | 77 | 1009.1 |
| 20260509215748 | 57 | 146 | 2.6 | 7.0 | 0.00 | 0.00 | 0.00 | 86 | 1010.8 |
| 20260509215650 | 57 | 105 | 1.7 | 7.0 | 0.00 | 0.00 | 0.00 | 86 | 1010.8 |
| 20260509215609 | 57 | 82 | 2.6 | 7.0 | 0.00 | 0.00 | 0.00 | 86 | 1010.8 |
| 20260509215527 | 57 | 105 | 3.5 | 7.0 | 0.00 | 0.00 | 0.00 | 86 | 1010.8 |
| 20260509215258 | 57 | 121 | 2.6 | 7.0 | 0.00 | 0.00 | 0.00 | 86 | 1010.7 |
| 20260509215216 | 57 | 130 | 2.6 | 7.0 | 0.00 | 0.00 | 0.00 | 86 | 1010.8 |
| 20260509215134 | 57 | 101 | 2.6 | 7.0 | 0.00 | 0.00 | 0.00 | 86 | 1010.8 |
| 20260509214947 | 57 | 34 | 2.6 | 7.8 | 0.00 | 0.00 | 0.00 | 86 | 1010.8 |
| 20260509214901 | 57 | 85 | 2.6 | 8.7 | 0.00 | 0.00 | 0.00 | 86 | 1010.8 |
| 20260509214819 | 57 | 67 | 3.5 | 8.7 | 0.00 | 0.00 | 0.00 | 86 | 1010.8 |
| 20260509214534 | 57 | 102 | 3.5 | 8.7 | 0.00 | 0.00 | 0.00 | 86 | 1010.9 |
| 20260509214520 | 60 | 128 | 4.3 | 11.3 | 0.00 | 0.00 | 0.00 | 76 | 1008.9 |
| 20260509214444 | 57 | 113 | 2.6 | 8.7 | 0.00 | 0.00 | 0.00 | 86 | 1010.8 |
| 20260509214359 | 57 | 34 | 3.5 | 8.7 | 0.00 | 0.00 | 0.00 | 86 | 1010.8 |
| 20260509214317 | 57 | 158 | 4.3 | 8.7 | 0.00 | 0.00 | 0.00 | 86 | 1010.7 |
| 20260509214235 | 57 | 164 | 3.5 | 8.7 | 0.00 | 0.00 | 0.00 | 86 | 1010.8 |
| 20260509214154 | 57 | 111 | 4.3 | 8.7 | 0.00 | 0.00 | 0.00 | 86 | 1010.8 |
| 20260509214112 | 57 | 117 | 5.2 | 8.7 | 0.00 | 0.00 | 0.00 | 86 | 1010.8 |
| 20260509213843 | 58 | 106 | 2.6 | 7.0 | 0.00 | 0.00 | 0.00 | 86 | 1010.8 |
| 20260509213758 | 58 | 113 | 1.7 | 5.2 | 0.00 | 0.00 | 0.00 | 86 | 1010.7 |
| 20260509213526 | 58 | 67 | 2.6 | 5.2 | 0.00 | 0.00 | 0.00 | 86 | 1010.8 |
| 20260509213440 | 58 | 93 | 2.6 | 5.2 | 0.00 | 0.00 | 0.00 | 86 | 1010.8 |
| 20260509213358 | 58 | 128 | 2.6 | 5.2 | 0.00 | 0.00 | 0.00 | 86 | 1010.8 |
| 20260509213317 | 58 | 124 | 2.6 | 5.2 | 0.00 | 0.00 | 0.00 | 86 | 1010.8 |
| 20260509212711 | 58 | 129 | 1.7 | 5.2 | 0.00 | 0.00 | 0.00 | 86 | 1010.7 |
| 20260509212611 | 58 | 137 | 1.7 | 5.2 | 0.00 | 0.00 | 0.00 | 86 | 1010.7 |
| 20260509212513 | 58 | 130 | 2.6 | 5.2 | 0.00 | 0.00 | 0.00 | 86 | 1010.6 |
| 20260509212429 | 58 | 133 | 1.7 | 5.2 | 0.00 | 0.00 | 0.00 | 85 | 1010.6 |
| 20260509212340 | 58 | 184 | 1.7 | 5.2 | 0.00 | 0.00 | 0.00 | 85 | 1010.6 |
| 20260509212259 | 58 | 134 | 1.7 | 5.2 | 0.00 | 0.00 | 0.00 | 85 | 1010.7 |
| 20260509212219 | 58 | 202 | 1.7 | 7.0 | 0.00 | 0.00 | 0.00 | 85 | 1010.6 |
| 20260509212141 | 58 | 178 | 1.7 | 7.0 | 0.00 | 0.00 | 0.00 | 85 | 1010.6 |
| 20260509212054 | 58 | 51 | 1.7 | 7.0 | 0.00 | 0.00 | 0.00 | 85 | 1010.6 |
| 20260509212015 | 58 | 123 | 0.9 | 7.0 | 0.00 | 0.00 | 0.00 | 85 | 1010.6 |
| 20260509211750 | 58 | 178 | 2.6 | 7.8 | 0.00 | 0.00 | 0.00 | 85 | 1010.5 |
| 20260509211710 | 58 | 105 | 1.7 | 7.8 | 0.00 | 0.00 | 0.00 | 85 | 1010.5 |
| 20260509211625 | 58 | 162 | 2.6 | 7.8 | 0.00 | 0.00 | 0.00 | 85 | 1010.4 |
| 20260509211543 | 58 | 71 | 1.7 | 7.8 | 0.00 | 0.00 | 0.00 | 85 | 1010.4 |
| 20260509211504 | 58 | 113 | 0.9 | 7.8 | 0.00 | 0.00 | 0.00 | 85 | 1010.4 |
| 20260509211244 | 58 | 217 | 1.7 | 11.3 | 0.00 | 0.00 | 0.00 | 85 | 1010.3 |
| 20260509211158 | 58 | 85 | 3.5 | 11.3 | 0.00 | 0.00 | 0.00 | 85 | 1010.3 |
| 20260509211116 | 58 | 137 | 4.3 | 11.3 | 0.00 | 0.00 | 0.00 | 85 | 1010.3 |
| 20260509210506 | 58 | 116 | 5.2 | 11.3 | 0.00 | 0.00 | 0.00 | 85 | 1010.3 |
| 20260509210424 | 58 | 86 | 6.1 | 11.3 | 0.00 | 0.00 | 0.00 | 85 | 1010.3 |
| 20260509210039 | 58 | 124 | 3.5 | 11.3 | 0.00 | 0.00 | 0.00 | 85 | 1010.2 |
| 20260509205948 | 58 | 107 | 1.7 | 10.4 | 0.00 | 0.00 | 0.00 | 85 | 1010.3 |
| 20260509205903 | 58 | 108 | 1.7 | 10.4 | 0.00 | 0.00 | 0.00 | 85 | 1010.2 |
| 20260509205820 | 58 | 55 | 1.7 | 10.4 | 0.00 | 0.00 | 0.00 | 85 | 1010.2 |
| 20260509205532 | 58 | 101 | 1.7 | 10.4 | 0.00 | 0.00 | 0.00 | 85 | 1010.2 |
| 20260509205432 | 58 | 111 | 2.6 | 10.4 | 0.00 | 0.00 | 0.00 | 85 | 1010.2 |
| 20260509205414 | 60 | 93 | 4.3 | 13.9 | 0.00 | 0.00 | 0.00 | 78 | 1008.6 |
| 20260509205326 | 58 | 93 | 3.5 | 10.4 | 0.00 | 0.00 | 0.00 | 85 | 1010.1 |
| 20260509205227 | 58 | 148 | 5.2 | 12.2 | 0.00 | 0.00 | 0.00 | 85 | 1010.2 |
| 20260509205146 | 58 | 123 | 7.8 | 13.0 | 0.00 | 0.00 | 0.00 | 85 | 1010.1 |
| 20260509205103 | 58 | 117 | 6.1 | 13.0 | 0.00 | 0.00 | 0.00 | 84 | 1010.1 |
| 20260509205009 | 58 | 104 | 5.2 | 13.0 | 0.00 | 0.00 | 0.00 | 84 | 1010.1 |
| 20260509204722 | 58 | 121 | 5.2 | 13.0 | 0.00 | 0.00 | 0.00 | 84 | 1010.1 |
| 20260509204706 | 60 | 92 | 3.5 | 11.3 | 0.00 | 0.00 | 0.00 | 78 | 1008.6 |
| 20260509204622 | 58 | 134 | 4.3 | 13.0 | 0.00 | 0.00 | 0.00 | 84 | 1010.1 |
| 20260509204559 | 60 | 83 | 6.1 | 11.3 | 0.00 | 0.00 | 0.00 | 78 | 1008.9 |
| 20260509204521 | 59 | 90 | 5.2 | 14.8 | 0.00 | 0.00 | 0.00 | 84 | 1010.1 |
| 20260509204459 | 60 | 88 | 6.1 | 11.3 | 0.00 | 0.00 | 0.00 | 78 | 1008.8 |
| 20260509204428 | 59 | 90 | 7.0 | 14.8 | 0.00 | 0.00 | 0.00 | 84 | 1010.0 |
| 20260509204341 | 58 | 102 | 8.7 | 14.8 | 0.00 | 0.00 | 0.00 | 84 | 1010.1 |
| 20260509204302 | 59 | 92 | 8.7 | 14.8 | 0.00 | 0.00 | 0.00 | 83 | 1010.0 |
| 20260509204047 | 60 | 97 | 4.3 | 9.6 | 0.00 | 0.00 | 0.00 | 78 | 1008.8 |
| 20260509204012 | 59 | 90 | 6.1 | 14.8 | 0.00 | 0.00 | 0.00 | 83 | 1010.1 |
| 20260509203910 | 59 | 126 | 7.8 | 14.8 | 0.00 | 0.00 | 0.00 | 83 | 1010.1 |
| 20260509203856 | 60 | 71 | 4.3 | 11.3 | 0.00 | 0.00 | 0.00 | 78 | 1008.8 |
| 20260509203809 | 59 | 96 | 7.8 | 14.8 | 0.00 | 0.00 | 0.00 | 83 | 1010.1 |
| 20260509203708 | 59 | 112 | 7.0 | 14.8 | 0.00 | 0.00 | 0.00 | 82 | 1010.1 |
| 20260509203611 | 59 | 117 | 7.8 | 14.8 | 0.00 | 0.00 | 0.00 | 82 | 1010.1 |
| 20260509203531 | 59 | 126 | 7.8 | 14.8 | 0.00 | 0.00 | 0.00 | 82 | 1010.0 |
| 20260509203446 | 59 | 109 | 7.8 | 14.8 | 0.00 | 0.00 | 0.00 | 82 | 1010.0 |
| 20260509203201 | 59 | 114 | 7.8 | 14.8 | 0.00 | 0.00 | 0.00 | 82 | 1009.9 |
| 20260509203100 | 59 | 112 | 6.1 | 13.0 | 0.00 | 0.00 | 0.00 | 82 | 1009.9 |
| 20260509202959 | 59 | 81 | 7.8 | 13.0 | 0.00 | 0.00 | 0.00 | 82 | 1009.9 |
| 20260509202859 | 59 | 128 | 7.0 | 12.2 | 0.00 | 0.00 | 0.00 | 82 | 1009.9 |
| 20260509202755 | 59 | 117 | 6.1 | 12.2 | 0.00 | 0.00 | 0.00 | 82 | 1010.0 |
| 20260509202703 | 59 | 90 | 5.2 | 12.2 | 0.00 | 0.00 | 0.00 | 82 | 1009.9 |
| 20260509202618 | 59 | 135 | 3.5 | 12.2 | 0.00 | 0.00 | 0.00 | 82 | 1009.9 |
| 20260509202536 | 59 | 144 | 4.3 | 13.9 | 0.00 | 0.00 | 0.00 | 82 | 1010.0 |
| 20260509202454 | 59 | 116 | 5.2 | 13.9 | 0.00 | 0.00 | 0.00 | 82 | 1009.9 |
| 20260509202230 | 59 | 104 | 6.1 | 13.9 | 0.00 | 0.00 | 0.00 | 81 | 1009.9 |
| 20260509201946 | 59 | 92 | 7.0 | 13.9 | 0.00 | 0.00 | 0.00 | 81 | 1009.9 |
| 20260509201933 | 61 | 72 | 5.2 | 11.3 | 0.00 | 0.00 | 0.00 | 77 | 1008.9 |
| 20260509201847 | 59 | 105 | 7.0 | 13.9 | 0.00 | 0.00 | 0.00 | 81 | 1009.8 |
| 20260509201745 | 59 | 114 | 7.8 | 13.9 | 0.00 | 0.00 | 0.00 | 81 | 1009.8 |
| 20260509201720 | 61 | 121 | 4.3 | 11.3 | 0.00 | 0.00 | 0.00 | 77 | 1008.9 |
| 20260509201645 | 59 | 102 | 7.0 | 13.9 | 0.00 | 0.00 | 0.00 | 81 | 1009.8 |
| 20260509201634 | 61 | 61 | 4.3 | 11.3 | 0.00 | 0.00 | 0.00 | 77 | 1008.9 |
| 20260509201547 | 59 | 121 | 5.2 | 11.3 | 0.00 | 0.00 | 0.00 | 81 | 1009.8 |
| 20260509201504 | 59 | 110 | 6.1 | 11.3 | 0.00 | 0.00 | 0.00 | 81 | 1009.8 |
| 20260509201418 | 59 | 134 | 5.2 | 13.9 | 0.00 | 0.00 | 0.00 | 81 | 1009.8 |
| 20260509201154 | 59 | 83 | 5.2 | 13.9 | 0.00 | 0.00 | 0.00 | 80 | 1009.8 |
| 20260509201113 | 59 | 160 | 4.3 | 13.9 | 0.00 | 0.00 | 0.00 | 80 | 1009.7 |
| 20260509201030 | 59 | 111 | 5.2 | 13.9 | 0.00 | 0.00 | 0.00 | 80 | 1009.8 |
| 20260509200759 | 61 | 105 | 7.0 | 11.3 | 0.00 | 0.00 | 0.00 | 77 | 1009.0 |
| 20260509200733 | 59 | 93 | 7.0 | 13.9 | 0.00 | 0.00 | 0.00 | 80 | 1009.7 |
| 20260509200626 | 59 | 99 | 8.7 | 13.9 | 0.00 | 0.00 | 0.00 | 80 | 1009.8 |
| 20260509200526 | 59 | 93 | 7.0 | 13.9 | 0.00 | 0.00 | 0.00 | 80 | 1009.7 |
| 20260509200424 | 59 | 126 | 5.2 | 10.4 | 0.00 | 0.00 | 0.00 | 79 | 1009.7 |
| 20260509200324 | 59 | 93 | 6.1 | 10.4 | 0.00 | 0.00 | 0.00 | 79 | 1009.8 |
| 20260509200253 | 61 | 104 | 7.0 | 11.3 | 0.00 | 0.00 | 0.00 | 76 | 1008.8 |
| 20260509200226 | 59 | 101 | 7.0 | 10.4 | 0.00 | 0.00 | 0.00 | 79 | 1009.7 |
| 20260509200140 | 59 | 117 | 6.1 | 9.6 | 0.00 | 0.00 | 0.00 | 79 | 1009.7 |
| 20260509200053 | 59 | 86 | 5.2 | 9.6 | 0.00 | 0.00 | 0.00 | 79 | 1009.6 |
| 20260509200011 | 59 | 74 | 5.2 | 9.6 | 0.00 | 0.00 | 0.00 | 79 | 1009.8 |
| 20260509195745 | 59 | 90 | 3.5 | 10.4 | 0.00 | 0.00 | 0.00 | 79 | 1009.6 |
| 20260509195702 | 60 | 245 | 3.5 | 10.4 | 0.00 | 0.00 | 0.00 | 79 | 1009.7 |
| 20260509195620 | 60 | 67 | 3.5 | 10.4 | 0.00 | 0.00 | 0.00 | 78 | 1009.7 |
| 20260509195416 | 60 | 84 | 3.5 | 10.4 | 0.00 | 0.00 | 0.00 | 78 | 1009.7 |
| 20260509195329 | 60 | 71 | 4.3 | 10.4 | 0.00 | 0.00 | 0.00 | 78 | 1009.7 |
| 20260509195235 | 60 | 86 | 5.2 | 10.4 | 0.00 | 0.00 | 0.00 | 78 | 1009.6 |
| 20260509195151 | 60 | 113 | 6.1 | 10.4 | 0.00 | 0.00 | 0.00 | 78 | 1009.6 |
| 20260509194907 | 60 | 137 | 6.1 | 11.3 | 0.00 | 0.00 | 0.00 | 78 | 1009.6 |
| 20260509194819 | 60 | 108 | 4.3 | 11.3 | 0.00 | 0.00 | 0.00 | 78 | 1009.6 |
| 20260509194737 | 60 | 123 | 4.3 | 11.3 | 0.00 | 0.00 | 0.00 | 78 | 1009.5 |
| 20260509194656 | 60 | 117 | 4.3 | 11.3 | 0.00 | 0.00 | 0.00 | 77 | 1009.5 |
| 20260509194405 | 60 | 69 | 4.3 | 11.3 | 0.00 | 0.00 | 0.00 | 77 | 1009.5 |
| 20260509194306 | 60 | 63 | 6.1 | 11.3 | 0.00 | 0.00 | 0.00 | 77 | 1009.5 |
| 20260509194226 | 60 | 105 | 7.0 | 11.3 | 0.00 | 0.00 | 0.00 | 77 | 1009.5 |
| 20260509194143 | 60 | 121 | 7.8 | 11.3 | 0.00 | 0.00 | 0.00 | 77 | 1009.5 |
| 20260509193909 | 60 | 65 | 7.8 | 10.4 | 0.00 | 0.00 | 0.00 | 77 | 1009.4 |
| 20260509193825 | 60 | 117 | 7.0 | 9.6 | 0.00 | 0.00 | 0.00 | 77 | 1009.4 |
| 20260509193742 | 60 | 83 | 6.1 | 9.6 | 0.00 | 0.00 | 0.00 | 77 | 1009.3 |
| 20260509193659 | 60 | 67 | 5.2 | 7.8 | 0.00 | 0.00 | 0.00 | 77 | 1009.4 |
| 20260509193436 | 60 | 90 | 4.3 | 7.0 | 0.00 | 0.00 | 0.00 | 77 | 1009.3 |
| 20260509193155 | 60 | 108 | 3.5 | 7.0 | 0.00 | 0.00 | 0.00 | 77 | 1009.3 |
| 20260509193111 | 60 | 93 | 3.5 | 7.0 | 0.00 | 0.00 | 0.00 | 77 | 1009.4 |
| 20260509193032 | 60 | 88 | 3.5 | 7.8 | 0.00 | 0.00 | 0.00 | 77 | 1009.4 |
| 20260509192752 | 60 | 93 | 4.3 | 7.8 | 0.00 | 0.00 | 0.00 | 77 | 1009.3 |
| 20260509192714 | 60 | 113 | 3.5 | 7.8 | 0.00 | 0.00 | 0.00 | 77 | 1009.2 |
| 20260509192624 | 60 | 78 | 4.3 | 7.8 | 0.00 | 0.00 | 0.00 | 77 | 1009.2 |
| 20260509192543 | 60 | 61 | 4.3 | 7.8 | 0.00 | 0.00 | 0.00 | 77 | 1009.2 |
| 20260509192341 | 60 | 99 | 2.6 | 7.8 | 0.00 | 0.00 | 0.00 | 77 | 1009.2 |
| 20260509192255 | 61 | 129 | 6.1 | 13.9 | 0.00 | 0.00 | 0.00 | 76 | 1008.9 |
| 20260509192240 | 60 | 61 | 2.6 | 7.8 | 0.00 | 0.00 | 0.00 | 77 | 1009.2 |
| 20260509192141 | 60 | 88 | 3.5 | 7.8 | 0.00 | 0.00 | 0.00 | 77 | 1009.2 |
| 20260509192045 | 60 | 83 | 3.5 | 7.8 | 0.00 | 0.00 | 0.00 | 77 | 1009.1 |
| 20260509191958 | 60 | 69 | 3.5 | 7.0 | 0.00 | 0.00 | 0.00 | 77 | 1009.0 |
| 20260509191920 | 60 | 70 | 2.6 | 7.0 | 0.00 | 0.00 | 0.00 | 77 | 1009.1 |
| 20260509191713 | 62 | 67 | 5.2 | 14.8 | 0.00 | 0.00 | 0.00 | 76 | 1008.9 |
| 20260509191634 | 60 | 71 | 3.5 | 7.0 | 0.00 | 0.00 | 0.00 | 77 | 1009.1 |
| 20260509191537 | 60 | 117 | 3.5 | 8.7 | 0.00 | 0.00 | 0.00 | 77 | 1009.0 |
| 20260509191455 | 60 | 80 | 3.5 | 8.7 | 0.00 | 0.00 | 0.00 | 77 | 1009.0 |
| 20260509191413 | 60 | 85 | 3.5 | 11.3 | 0.00 | 0.00 | 0.00 | 76 | 1009.1 |
| 20260509191129 | 60 | 84 | 2.6 | 11.3 | 0.00 | 0.00 | 0.00 | 77 | 1009.1 |
| 20260509191034 | 60 | 63 | 2.6 | 11.3 | 0.00 | 0.00 | 0.00 | 77 | 1009.0 |
| 20260509190952 | 60 | 59 | 3.5 | 11.3 | 0.00 | 0.00 | 0.00 | 76 | 1008.9 |
| 20260509190910 | 60 | 88 | 4.3 | 11.3 | 0.00 | 0.00 | 0.00 | 76 | 1008.9 |
| 20260509190646 | 60 | 84 | 4.3 | 11.3 | 0.00 | 0.00 | 0.00 | 76 | 1008.9 |
| 20260509190601 | 60 | 116 | 4.3 | 11.3 | 0.00 | 0.00 | 0.00 | 76 | 1008.9 |
| 20260509190320 | 60 | 149 | 3.5 | 10.4 | 0.00 | 0.00 | 0.00 | 77 | 1008.9 |
| 20260509190254 | 62 | 98 | 7.8 | 13.0 | 0.00 | 0.00 | 0.00 | 76 | 1008.9 |
| 20260509190222 | 60 | 102 | 3.5 | 10.4 | 0.00 | 0.00 | 0.00 | 76 | 1008.8 |
| 20260509190129 | 60 | 102 | 3.5 | 10.4 | 0.00 | 0.00 | 0.00 | 76 | 1008.8 |
| 20260509190015 | 60 | 126 | 4.3 | 10.4 | 0.00 | 0.00 | 0.00 | 77 | 1008.8 |
| 20260509185915 | 60 | 138 | 5.2 | 10.4 | 0.00 | 0.00 | 0.00 | 77 | 1008.8 |
| 20260509185830 | 62 | 71 | 5.2 | 11.3 | 0.00 | 0.00 | 0.00 | 76 | 1009.0 |
| 20260509185813 | 60 | 87 | 5.2 | 9.6 | 0.00 | 0.00 | 0.00 | 77 | 1008.8 |
| 20260509185742 | 62 | 105 | 7.8 | 11.3 | 0.00 | 0.00 | 0.00 | 76 | 1009.0 |
| 20260509185712 | 60 | 115 | 3.5 | 9.6 | 0.00 | 0.00 | 0.00 | 77 | 1008.6 |
| 20260509185611 | 60 | 149 | 3.5 | 9.6 | 0.00 | 0.00 | 0.00 | 77 | 1008.8 |
| 20260509185510 | 60 | 131 | 3.5 | 9.6 | 0.00 | 0.00 | 0.00 | 77 | 1008.6 |
| 20260509185411 | 60 | 98 | 4.3 | 9.6 | 0.00 | 0.00 | 0.00 | 77 | 1008.6 |
| 20260509185350 | 62 | 90 | 5.2 | 13.0 | 0.00 | 0.00 | 0.00 | 77 | 1009.0 |
| 20260509185308 | 60 | 108 | 6.1 | 9.6 | 0.00 | 0.00 | 0.00 | 77 | 1008.6 |
| 20260509185206 | 60 | 104 | 4.3 | 9.6 | 0.00 | 0.00 | 0.00 | 77 | 1008.6 |
| 20260509185144 | 62 | 57 | 6.1 | 12.2 | 0.00 | 0.00 | 0.00 | 77 | 1008.9 |
| 20260509185105 | 60 | 138 | 2.6 | 8.7 | 0.00 | 0.00 | 0.00 | 77 | 1008.5 |
| 20260509185004 | 60 | 83 | 2.6 | 8.7 | 0.00 | 0.00 | 0.00 | 78 | 1008.5 |
| 20260509184913 | 60 | 144 | 2.6 | 9.6 | 0.00 | 0.00 | 0.00 | 78 | 1008.5 |
| 20260509184826 | 60 | 101 | 3.5 | 9.6 | 0.00 | 0.00 | 0.00 | 78 | 1008.5 |
| 20260509184744 | 60 | 117 | 3.5 | 9.6 | 0.00 | 0.00 | 0.00 | 78 | 1008.5 |
| 20260509184700 | 60 | 83 | 3.5 | 13.9 | 0.00 | 0.00 | 0.00 | 78 | 1008.4 |
| 20260509184438 | 60 | 133 | 3.5 | 13.9 | 0.00 | 0.00 | 0.00 | 78 | 1008.6 |
| 20260509184351 | 60 | 140 | 4.3 | 13.9 | 0.00 | 0.00 | 0.00 | 78 | 1008.5 |
| 20260509184309 | 60 | 128 | 5.2 | 13.9 | 0.00 | 0.00 | 0.00 | 78 | 1008.5 |
| 20260509184228 | 60 | 137 | 4.3 | 13.9 | 0.00 | 0.00 | 0.00 | 78 | 1008.6 |
| 20260509184004 | 60 | 51 | 6.1 | 13.9 | 0.00 | 0.00 | 0.00 | 78 | 1008.6 |
| 20260509183919 | 60 | 103 | 7.0 | 13.9 | 0.00 | 0.00 | 0.00 | 78 | 1008.6 |
| 20260509183838 | 60 | 72 | 6.1 | 13.9 | 0.00 | 0.00 | 0.00 | 78 | 1008.6 |
| 20260509183755 | 60 | 140 | 3.5 | 11.3 | 0.00 | 0.00 | 0.00 | 78 | 1008.8 |
| 20260509183531 | 60 | 117 | 5.2 | 11.3 | 0.00 | 0.00 | 0.00 | 78 | 1008.6 |
| 20260509183304 | 60 | 101 | 7.0 | 11.3 | 0.00 | 0.00 | 0.00 | 78 | 1008.8 |
| 20260509182842 | 60 | 112 | 4.3 | 9.6 | 0.00 | 0.00 | 0.00 | 78 | 1008.6 |
| 20260509182800 | 60 | 67 | 4.3 | 11.3 | 0.00 | 0.00 | 0.00 | 78 | 1008.8 |
| 20260509182718 | 60 | 67 | 3.5 | 11.3 | 0.00 | 0.00 | 0.00 | 79 | 1008.8 |
| 20260509182452 | 60 | 84 | 5.2 | 11.3 | 0.00 | 0.00 | 0.00 | 78 | 1008.8 |
| 20260509182407 | 60 | 81 | 6.1 | 11.3 | 0.00 | 0.00 | 0.00 | 78 | 1008.8 |
| 20260509182328 | 60 | 67 | 5.2 | 11.3 | 0.00 | 0.00 | 0.00 | 78 | 1008.8 |
| 20260509182131 | 60 | 80 | 5.2 | 11.3 | 0.00 | 0.00 | 0.00 | 78 | 1008.8 |
| 20260509182030 | 60 | 76 | 7.0 | 11.3 | 0.00 | 0.00 | 0.00 | 78 | 1008.8 |
| 20260509181929 | 60 | 99 | 6.1 | 11.3 | 0.00 | 0.00 | 0.00 | 78 | 1008.8 |
| 20260509181837 | 60 | 95 | 5.2 | 10.4 | 0.00 | 0.00 | 0.00 | 78 | 1008.8 |
| 20260509181752 | 60 | 82 | 6.1 | 10.4 | 0.00 | 0.00 | 0.00 | 78 | 1008.8 |
| 20260509181712 | 60 | 31 | 5.2 | 10.4 | 0.00 | 0.00 | 0.00 | 78 | 1008.6 |
| 20260509181523 | 60 | 114 | 5.2 | 10.4 | 0.00 | 0.00 | 0.00 | 78 | 1008.8 |
| 20260509181423 | 60 | 63 | 6.1 | 10.4 | 0.00 | 0.00 | 0.00 | 78 | 1008.8 |
| 20260509181334 | 60 | 75 | 5.2 | 10.4 | 0.00 | 0.00 | 0.00 | 78 | 1008.8 |
| 20260509181256 | 63 | 93 | 7.0 | 14.8 | 0.00 | 0.00 | 0.00 | 77 | 1008.8 |
| 20260509181220 | 60 | 70 | 5.2 | 10.4 | 0.00 | 0.00 | 0.00 | 78 | 1008.8 |
| 20260509181118 | 60 | 93 | 6.1 | 10.4 | 0.00 | 0.00 | 0.00 | 78 | 1008.6 |
| 20260509181018 | 60 | 81 | 6.1 | 10.4 | 0.00 | 0.00 | 0.00 | 78 | 1008.8 |
| 20260509180958 | 63 | 98 | 8.7 | 14.8 | 0.00 | 0.00 | 0.00 | 76 | 1008.8 |
| 20260509180918 | 60 | 92 | 4.3 | 10.4 | 0.00 | 0.00 | 0.00 | 78 | 1008.8 |
| 20260509180831 | 60 | 61 | 4.3 | 10.4 | 0.00 | 0.00 | 0.00 | 78 | 1008.9 |
| 20260509180716 | 60 | 51 | 7.0 | 10.4 | 0.00 | 0.00 | 0.00 | 77 | 1008.8 |
| 20260509180634 | 60 | 83 | 6.1 | 10.4 | 0.00 | 0.00 | 0.00 | 77 | 1008.9 |
| 20260509180550 | 60 | 53 | 5.2 | 10.4 | 0.00 | 0.00 | 0.00 | 77 | 1008.9 |
| 20260509180510 | 60 | 61 | 5.2 | 10.4 | 0.00 | 0.00 | 0.00 | 77 | 1008.9 |
| 20260509180426 | 60 | 72 | 5.2 | 10.4 | 0.00 | 0.00 | 0.00 | 77 | 1008.9 |
| 20260509180203 | 61 | 76 | 5.2 | 11.3 | 0.00 | 0.00 | 0.00 | 77 | 1008.9 |
| 20260509180119 | 61 | 131 | 6.1 | 11.3 | 0.00 | 0.00 | 0.00 | 77 | 1008.9 |
| 20260509180033 | 61 | 74 | 6.1 | 11.3 | 0.00 | 0.00 | 0.00 | 77 | 1008.9 |
| 20260509175949 | 61 | 117 | 4.3 | 11.3 | 0.00 | 0.00 | 0.00 | 77 | 1008.8 |
| 20260509175540 | 61 | 57 | 5.2 | 11.3 | 0.00 | 0.00 | 0.00 | 77 | 1008.9 |
| 20260509175501 | 61 | 123 | 6.1 | 11.3 | 0.00 | 0.00 | 0.00 | 77 | 1008.9 |
| 20260509175236 | 61 | 85 | 6.1 | 11.3 | 0.00 | 0.00 | 0.00 | 77 | 1008.9 |
| 20260509175154 | 61 | 113 | 4.3 | 11.3 | 0.00 | 0.00 | 0.00 | 76 | 1008.9 |
| 20260509174953 | 61 | 64 | 2.6 | 10.4 | 0.00 | 0.00 | 0.00 | 77 | 1008.9 |
| 20260509174942 | 63 | 110 | 7.8 | 12.2 | 0.00 | 0.00 | 0.00 | 76 | 1008.8 |
| 20260509174854 | 61 | 110 | 3.5 | 10.4 | 0.00 | 0.00 | 0.00 | 77 | 1008.9 |
| 20260509174839 | 63 | 101 | 7.0 | 12.2 | 0.00 | 0.00 | 0.00 | 76 | 1008.6 |
| 20260509174753 | 61 | 98 | 5.2 | 10.4 | 0.00 | 0.00 | 0.00 | 76 | 1009.0 |
| 20260509174712 | 61 | 85 | 7.0 | 11.3 | 0.00 | 0.00 | 0.00 | 76 | 1008.8 |
| 20260509174629 | 61 | 76 | 6.1 | 11.3 | 0.00 | 0.00 | 0.00 | 76 | 1008.9 |
| 20260509174547 | 61 | 128 | 6.1 | 11.3 | 0.00 | 0.00 | 0.00 | 76 | 1008.9 |
| 20260509174505 | 61 | 129 | 5.2 | 11.3 | 0.00 | 0.00 | 0.00 | 76 | 1008.8 |
| 20260509174054 | 61 | 111 | 5.2 | 11.3 | 0.00 | 0.00 | 0.00 | 76 | 1008.8 |
| 20260509174012 | 61 | 124 | 6.1 | 11.3 | 0.00 | 0.00 | 0.00 | 76 | 1008.8 |
| 20260509173930 | 61 | 71 | 7.0 | 11.3 | 0.00 | 0.00 | 0.00 | 76 | 1008.8 |
| 20260509173736 | 61 | 99 | 6.1 | 11.3 | 0.00 | 0.00 | 0.00 | 76 | 1008.8 |
| 20260509173636 | 61 | 114 | 4.3 | 11.3 | 0.00 | 0.00 | 0.00 | 76 | 1008.8 |
| 20260509173625 | 63 | 86 | 5.2 | 10.4 | 0.00 | 0.00 | 0.00 | 76 | 1008.8 |
| 20260509173534 | 61 | 92 | 3.5 | 11.3 | 0.00 | 0.00 | 0.00 | 76 | 1008.8 |
| 20260509173445 | 63 | 71 | 2.6 | 10.4 | 0.00 | 0.00 | 0.00 | 77 | 1008.8 |
| 20260509173432 | 61 | 139 | 5.2 | 11.3 | 0.00 | 0.00 | 0.00 | 76 | 1008.9 |
| 20260509173333 | 61 | 108 | 7.0 | 11.3 | 0.00 | 0.00 | 0.00 | 76 | 1008.8 |
| 20260509173230 | 61 | 74 | 7.0 | 11.3 | 0.00 | 0.00 | 0.00 | 76 | 1008.9 |
| 20260509173139 | 61 | 98 | 6.1 | 12.2 | 0.00 | 0.00 | 0.00 | 76 | 1008.9 |
| 20260509173058 | 61 | 74 | 4.3 | 12.2 | 0.00 | 0.00 | 0.00 | 77 | 1008.9 |
| 20260509173016 | 61 | 97 | 4.3 | 12.2 | 0.00 | 0.00 | 0.00 | 76 | 1008.9 |
| 20260509172934 | 61 | 98 | 6.1 | 12.2 | 0.00 | 0.00 | 0.00 | 76 | 1008.9 |
| 20260509172849 | 61 | 84 | 7.0 | 13.9 | 0.00 | 0.00 | 0.00 | 76 | 1008.9 |
| 20260509172625 | 61 | 126 | 7.8 | 13.9 | 0.00 | 0.00 | 0.00 | 76 | 1008.8 |
| 20260509172543 | 61 | 97 | 6.1 | 13.9 | 0.00 | 0.00 | 0.00 | 76 | 1008.8 |
| 20260509172448 | 61 | 96 | 5.2 | 13.9 | 0.00 | 0.00 | 0.00 | 76 | 1008.9 |
| 20260509172117 | 61 | 98 | 5.2 | 13.9 | 0.00 | 0.00 | 0.00 | 76 | 1008.9 |
| 20260509172026 | 62 | 114 | 6.1 | 13.9 | 0.00 | 0.00 | 0.00 | 76 | 1008.9 |
| 20260509171942 | 62 | 93 | 8.7 | 14.8 | 0.00 | 0.00 | 0.00 | 76 | 1008.9 |
| 20260509171857 | 62 | 77 | 6.1 | 14.8 | 0.00 | 0.00 | 0.00 | 76 | 1008.8 |
| 20260509171609 | 62 | 84 | 5.2 | 14.8 | 0.00 | 0.00 | 0.00 | 76 | 1008.9 |
| 20260509171513 | 62 | 90 | 6.1 | 14.8 | 0.00 | 0.00 | 0.00 | 76 | 1008.8 |
| 20260509171421 | 62 | 62 | 7.8 | 14.8 | 0.00 | 0.00 | 0.00 | 76 | 1008.9 |
| 20260509171308 | 62 | 93 | 7.8 | 14.8 | 0.00 | 0.00 | 0.00 | 76 | 1009.0 |
| 20260509171200 | 62 | 113 | 7.8 | 14.8 | 0.00 | 0.00 | 0.00 | 76 | 1008.9 |
| 20260509171103 | 62 | 93 | 7.8 | 14.8 | 0.00 | 0.00 | 0.00 | 76 | 1008.9 |
| 20260509170956 | 62 | 90 | 6.1 | 14.8 | 0.00 | 0.00 | 0.00 | 76 | 1008.9 |
| 20260509170915 | 62 | 70 | 6.1 | 13.0 | 0.00 | 0.00 | 0.00 | 76 | 1008.9 |
| 20260509170835 | 62 | 129 | 9.6 | 13.0 | 0.00 | 0.00 | 0.00 | 75 | 1008.9 |
| 20260509170752 | 62 | 121 | 9.6 | 13.0 | 0.00 | 0.00 | 0.00 | 75 | 1009.0 |
| 20260509170506 | 62 | 126 | 6.1 | 11.3 | 0.00 | 0.00 | 0.00 | 75 | 1009.0 |
| 20260509170423 | 62 | 76 | 5.2 | 11.3 | 0.00 | 0.00 | 0.00 | 76 | 1009.0 |
| 20260509170341 | 62 | 78 | 5.2 | 11.3 | 0.00 | 0.00 | 0.00 | 76 | 1009.0 |
| 20260509170259 | 62 | 132 | 5.2 | 11.3 | 0.00 | 0.00 | 0.00 | 76 | 1009.0 |
| 20260509170215 | 62 | 126 | 4.3 | 11.3 | 0.00 | 0.00 | 0.00 | 76 | 1009.0 |
| 20260509165801 | 64 | 67 | 7.8 | 13.0 | 0.00 | 0.00 | 0.00 | 75 | 1009.0 |
| 20260509165744 | 62 | 114 | 7.8 | 13.0 | 0.00 | 0.00 | 0.00 | 77 | 1009.1 |
| 20260509165657 | 64 | 93 | 5.2 | 11.3 | 0.00 | 0.00 | 0.00 | 75 | 1008.9 |
| 20260509165636 | 62 | 102 | 6.1 | 13.0 | 0.00 | 0.00 | 0.00 | 77 | 1009.1 |
| 20260509165540 | 62 | 106 | 6.1 | 13.0 | 0.00 | 0.00 | 0.00 | 77 | 1009.0 |
| 20260509165524 | 64 | 74 | 6.1 | 11.3 | 0.00 | 0.00 | 0.00 | 75 | 1008.9 |
| 20260509165438 | 62 | 71 | 5.2 | 13.0 | 0.00 | 0.00 | 0.00 | 77 | 1009.0 |
| 20260509165422 | 64 | 109 | 5.2 | 10.4 | 0.00 | 0.00 | 0.00 | 75 | 1009.0 |
| 20260509165342 | 62 | 65 | 3.5 | 13.0 | 0.00 | 0.00 | 0.00 | 77 | 1009.0 |
| 20260509165302 | 62 | 114 | 3.5 | 13.0 | 0.00 | 0.00 | 0.00 | 77 | 1009.0 |
| 20260509165214 | 62 | 111 | 3.5 | 13.0 | 0.00 | 0.00 | 0.00 | 77 | 1008.9 |
| 20260509165019 | 64 | 74 | 4.3 | 10.4 | 0.00 | 0.00 | 0.00 | 76 | 1009.0 |
| 20260509164933 | 62 | 62 | 6.1 | 13.0 | 0.00 | 0.00 | 0.00 | 77 | 1008.9 |
| 20260509164839 | 62 | 63 | 6.1 | 13.0 | 0.00 | 0.00 | 0.00 | 77 | 1009.0 |
| 20260509164754 | 62 | 61 | 6.1 | 11.3 | 0.00 | 0.00 | 0.00 | 77 | 1008.9 |
| 20260509164712 | 62 | 98 | 7.0 | 12.2 | 0.00 | 0.00 | 0.00 | 77 | 1008.9 |
| 20260509164431 | 62 | 75 | 7.0 | 13.0 | 0.00 | 0.00 | 0.00 | 76 | 1008.9 |
| 20260509164352 | 62 | 59 | 6.1 | 13.0 | 0.00 | 0.00 | 0.00 | 76 | 1008.9 |
| 20260509164306 | 62 | 88 | 6.1 | 13.0 | 0.00 | 0.00 | 0.00 | 77 | 1008.9 |
| 20260509164121 | 62 | 130 | 6.1 | 13.0 | 0.00 | 0.00 | 0.00 | 77 | 1008.9 |
| 20260509164020 | 62 | 72 | 6.1 | 13.0 | 0.00 | 0.00 | 0.00 | 77 | 1008.9 |
| 20260509163938 | 62 | 67 | 7.0 | 13.0 | 0.00 | 0.00 | 0.00 | 77 | 1008.9 |
| 20260509163854 | 62 | 102 | 7.8 | 13.0 | 0.00 | 0.00 | 0.00 | 76 | 1009.0 |
| 20260509163611 | 62 | 111 | 6.1 | 13.0 | 0.00 | 0.00 | 0.00 | 77 | 1008.9 |
| 20260509163524 | 64 | 93 | 7.8 | 13.0 | 0.00 | 0.00 | 0.00 | 74 | 1009.2 |
| 20260509163509 | 62 | 61 | 6.1 | 13.0 | 0.00 | 0.00 | 0.00 | 77 | 1009.0 |
| 20260509163405 | 62 | 93 | 6.1 | 13.0 | 0.00 | 0.00 | 0.00 | 77 | 1008.9 |
| 20260509163304 | 62 | 105 | 7.0 | 13.0 | 0.00 | 0.00 | 0.00 | 77 | 1008.9 |
| 20260509163237 | 64 | 69 | 5.2 | 12.2 | 0.00 | 0.00 | 0.00 | 75 | 1009.4 |
| 20260509163209 | 62 | 123 | 7.0 | 13.0 | 0.00 | 0.00 | 0.00 | 77 | 1009.0 |
| 20260509163128 | 62 | 59 | 7.0 | 13.0 | 0.00 | 0.00 | 0.00 | 77 | 1008.8 |
| 20260509163045 | 62 | 74 | 6.1 | 13.0 | 0.00 | 0.00 | 0.00 | 77 | 1008.9 |
| 20260509162804 | 63 | 67 | 5.2 | 12.2 | 0.00 | 0.00 | 0.00 | 77 | 1008.9 |
| 20260509162722 | 63 | 74 | 4.3 | 12.2 | 0.00 | 0.00 | 0.00 | 77 | 1008.9 |
| 20260509162642 | 63 | 61 | 6.1 | 14.8 | 0.00 | 0.00 | 0.00 | 77 | 1008.8 |
| 20260509162418 | 63 | 100 | 6.1 | 14.8 | 0.00 | 0.00 | 0.00 | 76 | 1008.8 |
| 20260509162335 | 63 | 84 | 5.2 | 14.8 | 0.00 | 0.00 | 0.00 | 77 | 1008.8 |
| 20260509162252 | 63 | 88 | 5.2 | 14.8 | 0.00 | 0.00 | 0.00 | 77 | 1008.8 |
| 20260509162210 | 63 | 76 | 7.0 | 14.8 | 0.00 | 0.00 | 0.00 | 76 | 1008.8 |
| 20260509162126 | 63 | 63 | 5.2 | 14.8 | 0.00 | 0.00 | 0.00 | 76 | 1008.8 |
| 20260509162043 | 63 | 126 | 7.0 | 14.8 | 0.00 | 0.00 | 0.00 | 76 | 1008.9 |
| 20260509161813 | 63 | 79 | 6.1 | 14.8 | 0.00 | 0.00 | 0.00 | 76 | 1008.8 |
| 20260509161731 | 63 | 102 | 5.2 | 12.2 | 0.00 | 0.00 | 0.00 | 76 | 1008.9 |
| 20260509161636 | 63 | 102 | 4.3 | 12.2 | 0.00 | 0.00 | 0.00 | 77 | 1008.8 |
| 20260509161554 | 63 | 71 | 2.6 | 12.2 | 0.00 | 0.00 | 0.00 | 77 | 1008.9 |
| 20260509161321 | 63 | 139 | 6.1 | 12.2 | 0.00 | 0.00 | 0.00 | 76 | 1008.9 |
| 20260509161058 | 63 | 93 | 7.8 | 12.2 | 0.00 | 0.00 | 0.00 | 76 | 1008.8 |
| 20260509160833 | 63 | 96 | 7.0 | 12.2 | 0.00 | 0.00 | 0.00 | 76 | 1008.8 |
| 20260509160605 | 63 | 88 | 5.2 | 10.4 | 0.00 | 0.00 | 0.00 | 77 | 1008.8 |
| 20260509160523 | 63 | 72 | 5.2 | 10.4 | 0.00 | 0.00 | 0.00 | 76 | 1008.6 |
| 20260509160244 | 63 | 93 | 5.2 | 10.4 | 0.00 | 0.00 | 0.00 | 76 | 1008.8 |
| 20260509160200 | 63 | 71 | 5.2 | 10.4 | 0.00 | 0.00 | 0.00 | 76 | 1008.8 |
| 20260509160118 | 63 | 76 | 4.3 | 10.4 | 0.00 | 0.00 | 0.00 | 76 | 1008.8 |
| 20260509155816 | 63 | 104 | 5.2 | 10.4 | 0.00 | 0.00 | 0.00 | 77 | 1008.9 |
| 20260509155800 | 64 | 115 | 4.3 | 11.3 | 0.00 | 0.00 | 0.00 | 75 | 1009.4 |
| 20260509155719 | 63 | 117 | 7.0 | 10.4 | 0.00 | 0.00 | 0.00 | 76 | 1008.8 |
| 20260509155620 | 63 | 93 | 4.3 | 9.6 | 0.00 | 0.00 | 0.00 | 76 | 1008.8 |
| 20260509155536 | 63 | 72 | 4.3 | 9.6 | 0.00 | 0.00 | 0.00 | 76 | 1008.8 |
| 20260509155455 | 63 | 65 | 3.5 | 9.6 | 0.00 | 0.00 | 0.00 | 76 | 1008.8 |
| 20260509155212 | 63 | 56 | 7.0 | 9.6 | 0.00 | 0.00 | 0.00 | 76 | 1008.8 |
| 20260509155108 | 63 | 71 | 6.1 | 9.6 | 0.00 | 0.00 | 0.00 | 75 | 1008.8 |
| 20260509155023 | 64 | 109 | 6.1 | 11.3 | 0.00 | 0.00 | 0.00 | 76 | 1009.5 |
| 20260509155007 | 63 | 67 | 5.2 | 9.6 | 0.00 | 0.00 | 0.00 | 76 | 1008.8 |
| 20260509154906 | 64 | 65 | 5.2 | 9.6 | 0.00 | 0.00 | 0.00 | 76 | 1008.8 |
| 20260509154805 | 64 | 77 | 5.2 | 7.8 | 0.00 | 0.00 | 0.00 | 75 | 1008.9 |
| 20260509154736 | 64 | 80 | 7.0 | 12.2 | 0.00 | 0.00 | 0.00 | 74 | 1009.6 |
| 20260509154705 | 64 | 79 | 3.5 | 7.8 | 0.00 | 0.00 | 0.00 | 75 | 1008.9 |
| 20260509154602 | 64 | 63 | 3.5 | 8.7 | 0.00 | 0.00 | 0.00 | 75 | 1008.9 |
| 20260509154507 | 64 | 110 | 4.3 | 8.7 | 0.00 | 0.00 | 0.00 | 75 | 1008.9 |
| 20260509154425 | 64 | 139 | 3.5 | 13.0 | 0.00 | 0.00 | 0.00 | 76 | 1008.9 |
| 20260509154341 | 64 | 110 | 3.5 | 13.0 | 0.00 | 0.00 | 0.00 | 75 | 1008.9 |
| 20260509154253 | 64 | 69 | 2.6 | 13.0 | 0.00 | 0.00 | 0.00 | 76 | 1008.9 |
| 20260509154212 | 64 | 65 | 3.5 | 13.0 | 0.00 | 0.00 | 0.00 | 75 | 1008.9 |
| 20260509154128 | 64 | 88 | 4.3 | 13.0 | 0.00 | 0.00 | 0.00 | 75 | 1008.9 |
| 20260509154042 | 64 | 65 | 4.3 | 13.0 | 0.00 | 0.00 | 0.00 | 75 | 1008.9 |
| 20260509153959 | 64 | 55 | 6.1 | 13.0 | 0.00 | 0.00 | 0.00 | 75 | 1008.9 |
| 20260509153917 | 64 | 63 | 7.0 | 13.0 | 0.00 | 0.00 | 0.00 | 75 | 1009.0 |
| 20260509153654 | 64 | 86 | 7.0 | 13.0 | 0.00 | 0.00 | 0.00 | 75 | 1008.9 |
| 20260509153428 | 64 | 119 | 4.3 | 11.3 | 0.00 | 0.00 | 0.00 | 75 | 1009.0 |
| 20260509153203 | 64 | 93 | 7.0 | 11.3 | 0.00 | 0.00 | 0.00 | 75 | 1009.0 |
| 20260509152750 | 64 | 93 | 6.1 | 10.4 | 0.00 | 0.00 | 0.00 | 75 | 1009.0 |
| 20260509152706 | 64 | 103 | 6.1 | 10.4 | 0.00 | 0.00 | 0.00 | 75 | 1009.1 |
| 20260509152621 | 64 | 101 | 5.2 | 10.4 | 0.00 | 0.00 | 0.00 | 75 | 1009.2 |
| 20260509152537 | 64 | 111 | 7.0 | 13.0 | 0.00 | 0.00 | 0.00 | 75 | 1009.2 |
| 20260509152312 | 64 | 32 | 6.1 | 13.0 | 0.00 | 0.00 | 0.00 | 75 | 1009.2 |
| 20260509152227 | 64 | 117 | 6.1 | 13.0 | 0.00 | 0.00 | 0.00 | 75 | 1009.1 |
| 20260509152024 | 64 | 114 | 5.2 | 13.0 | 0.00 | 0.00 | 0.00 | 75 | 1009.2 |
| 20260509152000 | 64 | 110 | 7.0 | 12.2 | 0.00 | 0.00 | 0.00 | 74 | 1009.5 |
| 20260509151924 | 64 | 109 | 4.3 | 13.0 | 0.00 | 0.00 | 0.00 | 76 | 1009.2 |
| 20260509151840 | 64 | 61 | 3.5 | 13.0 | 0.00 | 0.00 | 0.00 | 75 | 1009.2 |
| 20260509151759 | 64 | 128 | 6.1 | 13.0 | 0.00 | 0.00 | 0.00 | 75 | 1009.3 |
| 20260509151516 | 64 | 117 | 8.7 | 13.0 | 0.00 | 0.00 | 0.00 | 74 | 1009.2 |
| 20260509151412 | 64 | 124 | 7.0 | 13.0 | 0.00 | 0.00 | 0.00 | 75 | 1009.3 |
| 20260509151320 | 64 | 102 | 4.3 | 12.2 | 0.00 | 0.00 | 0.00 | 75 | 1009.2 |
| 20260509151239 | 64 | 131 | 3.5 | 12.2 | 0.00 | 0.00 | 0.00 | 75 | 1009.3 |
| 20260509151155 | 64 | 65 | 5.2 | 12.2 | 0.00 | 0.00 | 0.00 | 75 | 1009.3 |
| 20260509150958 | 64 | 96 | 5.2 | 13.9 | 0.00 | 0.00 | 0.00 | 75 | 1009.5 |
| 20260509150909 | 64 | 117 | 7.0 | 12.2 | 0.00 | 0.00 | 0.00 | 75 | 1009.4 |
| 20260509150826 | 64 | 105 | 6.1 | 12.2 | 0.00 | 0.00 | 0.00 | 74 | 1009.4 |
| 20260509150745 | 64 | 81 | 5.2 | 10.4 | 0.00 | 0.00 | 0.00 | 75 | 1009.4 |
| 20260509150500 | 64 | 121 | 4.3 | 11.3 | 0.00 | 0.00 | 0.00 | 75 | 1009.3 |
| 20260509150420 | 64 | 113 | 5.2 | 11.3 | 0.00 | 0.00 | 0.00 | 75 | 1009.4 |
| 20260509150336 | 64 | 50 | 6.1 | 11.3 | 0.00 | 0.00 | 0.00 | 75 | 1009.4 |
| 20260509150254 | 64 | 97 | 5.2 | 11.3 | 0.00 | 0.00 | 0.00 | 75 | 1009.5 |
| 20260509150104 | 64 | 55 | 5.2 | 11.3 | 0.00 | 0.00 | 0.00 | 75 | 1009.4 |
| 20260509145952 | 64 | 50 | 5.2 | 11.3 | 0.00 | 0.00 | 0.00 | 76 | 1009.4 |
| 20260509145856 | 64 | 86 | 7.8 | 11.3 | 0.00 | 0.00 | 0.00 | 75 | 1009.5 |
| 20260509145812 | 64 | 74 | 7.0 | 11.3 | 0.00 | 0.00 | 0.00 | 74 | 1009.5 |
| 20260509145726 | 64 | 84 | 5.2 | 11.3 | 0.00 | 0.00 | 0.00 | 75 | 1009.5 |
| 20260509145442 | 64 | 81 | 6.1 | 11.3 | 0.00 | 0.00 | 0.00 | 75 | 1009.5 |
| 20260509145344 | 64 | 104 | 6.1 | 11.3 | 0.00 | 0.00 | 0.00 | 75 | 1009.5 |
| 20260509145256 | 64 | 104 | 5.2 | 11.3 | 0.00 | 0.00 | 0.00 | 75 | 1009.5 |
| 20260509145212 | 64 | 92 | 6.1 | 11.3 | 0.00 | 0.00 | 0.00 | 76 | 1009.5 |
| 20260509145131 | 64 | 82 | 7.8 | 12.2 | 0.00 | 0.00 | 0.00 | 75 | 1009.5 |
| 20260509144905 | 64 | 80 | 5.2 | 12.2 | 0.00 | 0.00 | 0.00 | 75 | 1009.5 |
| 20260509144823 | 64 | 49 | 5.2 | 12.2 | 0.00 | 0.00 | 0.00 | 75 | 1009.5 |
| 20260509144738 | 64 | 83 | 7.8 | 12.2 | 0.00 | 0.00 | 0.00 | 74 | 1009.5 |
| 20260509144656 | 64 | 71 | 7.0 | 12.2 | 0.00 | 0.00 | 0.00 | 73 | 1009.5 |
| 20260509144229 | 64 | 112 | 7.0 | 12.2 | 0.00 | 0.00 | 0.00 | 74 | 1009.5 |
| 20260509144128 | 64 | 69 | 7.0 | 13.0 | 0.00 | 0.00 | 0.00 | 74 | 1009.5 |
| 20260509144028 | 64 | 71 | 5.2 | 13.0 | 0.00 | 0.00 | 0.00 | 74 | 1009.5 |
| 20260509144006 | 64 | 150 | 7.0 | 13.9 | 0.00 | 0.00 | 0.00 | 74 | 1009.9 |
| 20260509143931 | 64 | 61 | 5.2 | 13.0 | 0.00 | 0.00 | 0.00 | 74 | 1009.5 |
| 20260509143848 | 64 | 51 | 6.1 | 13.0 | 0.00 | 0.00 | 0.00 | 75 | 1009.5 |
| 20260509143804 | 64 | 90 | 6.1 | 13.0 | 0.00 | 0.00 | 0.00 | 75 | 1009.5 |
| 20260509143522 | 64 | 101 | 4.3 | 13.9 | 0.00 | 0.00 | 0.00 | 75 | 1009.5 |
| 20260509143440 | 64 | 130 | 6.1 | 13.9 | 0.00 | 0.00 | 0.00 | 75 | 1009.5 |
| 20260509143359 | 64 | 88 | 7.8 | 13.9 | 0.00 | 0.00 | 0.00 | 74 | 1009.6 |
| 20260509143116 | 64 | 117 | 7.0 | 13.9 | 0.00 | 0.00 | 0.00 | 74 | 1009.6 |
| 20260509143053 | 64 | 81 | 7.8 | 13.9 | 0.00 | 0.00 | 0.00 | 74 | 1010.0 |
| 20260509143016 | 64 | 123 | 7.0 | 13.9 | 0.00 | 0.00 | 0.00 | 74 | 1009.6 |
| 20260509142914 | 64 | 109 | 7.0 | 13.9 | 0.00 | 0.00 | 0.00 | 75 | 1009.7 |
| 20260509142814 | 64 | 77 | 7.8 | 13.9 | 0.00 | 0.00 | 0.00 | 74 | 1009.7 |
| 20260509142711 | 64 | 137 | 7.8 | 13.9 | 0.00 | 0.00 | 0.00 | 75 | 1009.6 |
| 20260509142648 | 64 | 88 | 6.1 | 12.2 | 0.00 | 0.00 | 0.00 | 74 | 1009.9 |
| 20260509142613 | 64 | 129 | 5.2 | 13.9 | 0.00 | 0.00 | 0.00 | 74 | 1009.7 |
| 20260509142526 | 64 | 93 | 7.8 | 16.5 | 0.00 | 0.00 | 0.00 | 74 | 1010.0 |
| 20260509142508 | 64 | 67 | 5.2 | 13.9 | 0.00 | 0.00 | 0.00 | 76 | 1009.7 |
| 20260509142408 | 64 | 84 | 5.2 | 13.9 | 0.00 | 0.00 | 0.00 | 75 | 1009.8 |
| 20260509142307 | 64 | 61 | 7.8 | 13.9 | 0.00 | 0.00 | 0.00 | 76 | 1009.7 |
| 20260509142205 | 64 | 130 | 8.7 | 13.9 | 0.00 | 0.00 | 0.00 | 74 | 1009.8 |
| 20260509142142 | 64 | 67 | 7.8 | 16.5 | 0.00 | 0.00 | 0.00 | 73 | 1010.0 |
| 20260509142106 | 64 | 63 | 7.8 | 13.9 | 0.00 | 0.00 | 0.00 | 74 | 1009.7 |
| 20260509142003 | 64 | 74 | 6.1 | 13.9 | 0.00 | 0.00 | 0.00 | 74 | 1009.8 |
| 20260509141921 | 64 | 57 | 6.1 | 13.9 | 0.00 | 0.00 | 0.00 | 74 | 1009.8 |
| 20260509141839 | 64 | 63 | 7.0 | 13.9 | 0.00 | 0.00 | 0.00 | 75 | 1009.8 |
| 20260509141757 | 64 | 104 | 6.1 | 13.9 | 0.00 | 0.00 | 0.00 | 75 | 1009.8 |
| 20260509141713 | 64 | 104 | 6.1 | 13.9 | 0.00 | 0.00 | 0.00 | 75 | 1009.9 |
| 20260509141452 | 64 | 88 | 5.2 | 13.9 | 0.00 | 0.00 | 0.00 | 75 | 1009.8 |
| 20260509141257 | 64 | 53 | 7.8 | 13.9 | 0.00 | 0.00 | 0.00 | 74 | 1009.9 |
| 20260509141210 | 64 | 105 | 8.7 | 13.9 | 0.00 | 0.00 | 0.00 | 74 | 1009.9 |
| 20260509141126 | 64 | 98 | 7.8 | 13.9 | 0.00 | 0.00 | 0.00 | 74 | 1009.9 |
| 20260509141044 | 64 | 93 | 8.7 | 13.9 | 0.00 | 0.00 | 0.00 | 74 | 1009.9 |
| 20260509140821 | 64 | 63 | 6.1 | 13.9 | 0.00 | 0.00 | 0.00 | 74 | 1010.0 |
| 20260509140739 | 64 | 100 | 7.0 | 13.9 | 0.00 | 0.00 | 0.00 | 74 | 1010.0 |
| 20260509140547 | 64 | 103 | 7.0 | 13.9 | 0.00 | 0.00 | 0.00 | 74 | 1010.0 |
| 20260509140445 | 64 | 99 | 7.0 | 13.9 | 0.00 | 0.00 | 0.00 | 74 | 1010.1 |
| 20260509140410 | 65 | 70 | 7.8 | 15.6 | 0.00 | 0.00 | 0.00 | 73 | 1010.1 |
| 20260509140344 | 64 | 70 | 6.1 | 13.9 | 0.00 | 0.00 | 0.00 | 74 | 1010.0 |
| 20260509140246 | 64 | 93 | 7.0 | 13.9 | 0.00 | 0.00 | 0.00 | 74 | 1010.0 |
| 20260509140205 | 64 | 133 | 8.7 | 13.9 | 0.00 | 0.00 | 0.00 | 73 | 1010.1 |
| 20260509140122 | 64 | 67 | 7.8 | 12.2 | 0.00 | 0.00 | 0.00 | 73 | 1010.0 |
| 20260509140024 | 64 | 93 | 6.1 | 12.2 | 0.00 | 0.00 | 0.00 | 74 | 1010.0 |
| 20260509135759 | 64 | 67 | 7.8 | 12.2 | 0.00 | 0.00 | 0.00 | 74 | 1009.9 |
| 20260509135719 | 64 | 67 | 8.7 | 16.5 | 0.00 | 0.00 | 0.00 | 74 | 1009.9 |
| 20260509135432 | 64 | 65 | 7.0 | 16.5 | 0.00 | 0.00 | 0.00 | 74 | 1009.9 |
| 20260509135331 | 64 | 69 | 7.0 | 16.5 | 0.00 | 0.00 | 0.00 | 74 | 1009.9 |
| 20260509135312 | 65 | 77 | 9.6 | 16.5 | 0.00 | 0.00 | 0.00 | 73 | 1010.3 |
| 20260509135229 | 64 | 104 | 6.1 | 16.5 | 0.00 | 0.00 | 0.00 | 74 | 1010.1 |
| 20260509135135 | 64 | 115 | 7.0 | 16.5 | 0.00 | 0.00 | 0.00 | 74 | 1010.0 |
| 20260509135042 | 64 | 121 | 8.7 | 16.5 | 0.00 | 0.00 | 0.00 | 74 | 1010.0 |
| 20260509134958 | 64 | 70 | 8.7 | 16.5 | 0.00 | 0.00 | 0.00 | 73 | 1009.9 |
| 20260509134917 | 64 | 77 | 7.8 | 16.5 | 0.00 | 0.00 | 0.00 | 73 | 1009.9 |
| 20260509134652 | 64 | 99 | 8.7 | 14.8 | 0.00 | 0.00 | 0.00 | 73 | 1010.0 |
| 20260509134610 | 65 | 111 | 7.8 | 14.8 | 0.00 | 0.00 | 0.00 | 74 | 1010.0 |
| 20260509134525 | 65 | 83 | 6.1 | 14.8 | 0.00 | 0.00 | 0.00 | 73 | 1010.0 |
| 20260509134300 | 65 | 76 | 7.8 | 15.6 | 0.00 | 0.00 | 0.00 | 73 | 1010.0 |
| 20260509134029 | 65 | 63 | 8.7 | 15.6 | 0.00 | 0.00 | 0.00 | 73 | 1010.0 |
| 20260509133946 | 65 | 123 | 7.8 | 15.6 | 0.00 | 0.00 | 0.00 | 73 | 1010.1 |
| 20260509133853 | 65 | 74 | 7.8 | 15.6 | 0.00 | 0.00 | 0.00 | 73 | 1010.1 |
| 20260509133610 | 65 | 113 | 7.8 | 15.6 | 0.00 | 0.00 | 0.00 | 73 | 1010.1 |
| 20260509133508 | 65 | 126 | 9.6 | 15.6 | 0.00 | 0.00 | 0.00 | 73 | 1010.1 |
| 20260509133406 | 65 | 88 | 9.6 | 16.5 | 0.00 | 0.00 | 0.00 | 72 | 1010.1 |
| 20260509133306 | 65 | 78 | 7.8 | 16.5 | 0.00 | 0.00 | 0.00 | 73 | 1010.2 |
| 20260509133208 | 65 | 107 | 8.7 | 16.5 | 0.00 | 0.00 | 0.00 | 73 | 1010.2 |
| 20260509133124 | 65 | 85 | 9.6 | 16.5 | 0.00 | 0.00 | 0.00 | 73 | 1010.2 |
| 20260509133044 | 65 | 81 | 8.7 | 16.5 | 0.00 | 0.00 | 0.00 | 72 | 1010.2 |
| 20260509132802 | 65 | 117 | 9.6 | 16.5 | 0.00 | 0.00 | 0.00 | 73 | 1010.3 |
| 20260509132658 | 65 | 74 | 10.4 | 16.5 | 0.00 | 0.00 | 0.00 | 72 | 1010.3 |
| 20260509132601 | 65 | 105 | 9.6 | 16.5 | 0.00 | 0.00 | 0.00 | 71 | 1010.2 |
| 20260509132546 | 65 | 67 | 7.8 | 13.0 | 0.00 | 0.00 | 0.00 | 71 | 1010.3 |
| 20260509132452 | 65 | 61 | 8.7 | 16.5 | 0.00 | 0.00 | 0.00 | 72 | 1010.2 |
| 20260509132351 | 65 | 83 | 7.8 | 14.8 | 0.00 | 0.00 | 0.00 | 72 | 1010.2 |
| 20260509132251 | 65 | 69 | 6.1 | 14.8 | 0.00 | 0.00 | 0.00 | 72 | 1010.3 |
| 20260509132216 | 66 | 77 | 6.1 | 13.9 | 0.00 | 0.00 | 0.00 | 71 | 1010.4 |
| 20260509132149 | 65 | 85 | 7.0 | 14.8 | 0.00 | 0.00 | 0.00 | 72 | 1010.2 |
| 20260509132051 | 65 | 78 | 8.7 | 14.8 | 0.00 | 0.00 | 0.00 | 72 | 1010.2 |
| 20260509131948 | 65 | 49 | 9.6 | 14.8 | 0.00 | 0.00 | 0.00 | 71 | 1010.2 |
| 20260509131918 | 66 | 128 | 7.8 | 17.4 | 0.00 | 0.00 | 0.00 | 71 | 1010.6 |
| 20260509131849 | 65 | 87 | 9.6 | 14.8 | 0.00 | 0.00 | 0.00 | 71 | 1010.3 |
| 20260509131748 | 65 | 77 | 9.6 | 14.8 | 0.00 | 0.00 | 0.00 | 71 | 1010.2 |
| 20260509131646 | 65 | 85 | 10.4 | 14.8 | 0.00 | 0.00 | 0.00 | 72 | 1010.2 |
| 20260509131548 | 65 | 61 | 7.8 | 14.8 | 0.00 | 0.00 | 0.00 | 71 | 1010.1 |
| 20260509131444 | 65 | 50 | 8.7 | 13.9 | 0.00 | 0.00 | 0.00 | 71 | 1010.2 |
| 20260509131340 | 65 | 130 | 10.4 | 13.9 | 0.00 | 0.00 | 0.00 | 70 | 1010.2 |
| 20260509131241 | 65 | 65 | 9.6 | 13.9 | 0.00 | 0.00 | 0.00 | 71 | 1010.2 |
| 20260509131140 | 65 | 111 | 7.0 | 13.0 | 0.00 | 0.00 | 0.00 | 71 | 1010.2 |
| 20260509131058 | 67 | 121 | 7.8 | 20.0 | 0.00 | 0.00 | 0.00 | 70 | 1010.6 |
| 20260509131037 | 65 | 80 | 4.3 | 13.0 | 0.00 | 0.00 | 0.00 | 72 | 1010.2 |
| 20260509130938 | 65 | 76 | 6.1 | 13.0 | 0.00 | 0.00 | 0.00 | 72 | 1010.2 |
| 20260509130921 | 67 | 69 | 7.8 | 20.0 | 0.00 | 0.00 | 0.00 | 70 | 1010.5 |
| 20260509130834 | 65 | 92 | 6.1 | 13.0 | 0.00 | 0.00 | 0.00 | 72 | 1010.3 |
| 20260509130739 | 65 | 117 | 5.2 | 13.0 | 0.00 | 0.00 | 0.00 | 72 | 1010.3 |
| 20260509130700 | 65 | 100 | 7.0 | 13.0 | 0.00 | 0.00 | 0.00 | 71 | 1010.3 |
| 20260509130617 | 65 | 110 | 7.8 | 13.0 | 0.00 | 0.00 | 0.00 | 70 | 1010.3 |
| 20260509130331 | 66 | 75 | 7.8 | 13.0 | 0.00 | 0.00 | 0.00 | 71 | 1010.3 |
| 20260509130232 | 66 | 100 | 7.0 | 13.0 | 0.00 | 0.00 | 0.00 | 71 | 1010.3 |
| 20260509130129 | 66 | 110 | 6.1 | 12.2 | 0.00 | 0.00 | 0.00 | 71 | 1010.3 |
| 20260509130024 | 65 | 104 | 7.0 | 13.9 | 0.00 | 0.00 | 0.00 | 71 | 1010.4 |
| 20260509130005 | 67 | 101 | 7.8 | 15.6 | 0.00 | 0.00 | 0.00 | 69 | 1010.4 |
| 20260509125943 | 67 | 142 | 8.7 | 15.6 | 0.00 | 0.00 | 0.00 | 69 | 1010.4 |
| 20260509125925 | 65 | 83 | 8.7 | 13.9 | 0.00 | 0.00 | 0.00 | 70 | 1010.4 |
| 20260509125824 | 66 | 90 | 6.1 | 13.9 | 0.00 | 0.00 | 0.00 | 72 | 1010.4 |
| 20260509125742 | 65 | 133 | 6.1 | 13.9 | 0.00 | 0.00 | 0.00 | 72 | 1010.4 |
| 20260509125703 | 65 | 96 | 7.0 | 13.9 | 0.00 | 0.00 | 0.00 | 71 | 1010.4 |
| 20260509125421 | 66 | 74 | 7.0 | 13.9 | 0.00 | 0.00 | 0.00 | 70 | 1010.5 |
| 20260509125326 | 66 | 98 | 9.6 | 13.9 | 0.00 | 0.00 | 0.00 | 70 | 1010.5 |
| 20260509125245 | 66 | 114 | 8.7 | 13.9 | 0.00 | 0.00 | 0.00 | 70 | 1010.6 |
| 20260509125204 | 66 | 74 | 7.0 | 17.4 | 0.00 | 0.00 | 0.00 | 70 | 1010.5 |
| 20260509124952 | 68 | 92 | 8.7 | 15.6 | 0.00 | 0.00 | 0.00 | 69 | 1010.4 |
| 20260509124913 | 66 | 97 | 7.8 | 17.4 | 0.00 | 0.00 | 0.00 | 70 | 1010.5 |
| 20260509124814 | 66 | 95 | 7.0 | 17.4 | 0.00 | 0.00 | 0.00 | 70 | 1010.5 |
| 20260509124710 | 66 | 110 | 7.8 | 17.4 | 0.00 | 0.00 | 0.00 | 70 | 1010.6 |
| 20260509124651 | 68 | 90 | 9.6 | 20.0 | 0.00 | 0.00 | 0.00 | 70 | 1010.3 |
| 20260509124614 | 66 | 117 | 7.8 | 17.4 | 0.00 | 0.00 | 0.00 | 69 | 1010.5 |
| 20260509124514 | 66 | 117 | 8.7 | 17.4 | 0.00 | 0.00 | 0.00 | 69 | 1010.6 |
| 20260509124410 | 66 | 128 | 8.7 | 17.4 | 0.00 | 0.00 | 0.00 | 69 | 1010.6 |
| 20260509124308 | 67 | 67 | 7.0 | 17.4 | 0.00 | 0.00 | 0.00 | 69 | 1010.5 |
| 20260509124206 | 67 | 70 | 5.2 | 17.4 | 0.00 | 0.00 | 0.00 | 71 | 1010.6 |
| 20260509124107 | 67 | 101 | 8.7 | 17.4 | 0.00 | 0.00 | 0.00 | 70 | 1010.5 |
| 20260509124026 | 67 | 77 | 7.8 | 17.4 | 0.00 | 0.00 | 0.00 | 70 | 1010.5 |
| 20260509123940 | 67 | 107 | 5.2 | 17.4 | 0.00 | 0.00 | 0.00 | 70 | 1010.5 |
| 20260509123900 | 67 | 71 | 4.3 | 17.4 | 0.00 | 0.00 | 0.00 | 72 | 1010.5 |
| 20260509123658 | 67 | 101 | 3.5 | 17.4 | 0.00 | 0.00 | 0.00 | 71 | 1010.6 |
| 20260509123557 | 66 | 90 | 6.1 | 17.4 | 0.00 | 0.00 | 0.00 | 71 | 1010.4 |
| 20260509123529 | 68 | 137 | 7.8 | 15.6 | 0.00 | 0.00 | 0.00 | 68 | 1010.4 |
| 20260509123457 | 66 | 76 | 8.7 | 17.4 | 0.00 | 0.00 | 0.00 | 70 | 1010.5 |
| 20260509123353 | 67 | 92 | 8.7 | 17.4 | 0.00 | 0.00 | 0.00 | 70 | 1010.6 |
| 20260509123256 | 67 | 74 | 7.8 | 14.8 | 0.00 | 0.00 | 0.00 | 70 | 1010.6 |
| 20260509123214 | 67 | 117 | 7.0 | 14.8 | 0.00 | 0.00 | 0.00 | 71 | 1010.6 |
| 20260509123130 | 67 | 70 | 7.0 | 20.0 | 0.00 | 0.00 | 0.00 | 70 | 1010.6 |
| 20260509122906 | 67 | 155 | 8.7 | 20.0 | 0.00 | 0.00 | 0.00 | 70 | 1010.5 |
| 20260509122823 | 67 | 65 | 8.7 | 20.0 | 0.00 | 0.00 | 0.00 | 70 | 1010.5 |
| 20260509122621 | 68 | 111 | 8.7 | 14.8 | 0.00 | 0.00 | 0.00 | 67 | 1010.6 |
| 20260509122545 | 67 | 100 | 7.0 | 20.0 | 0.00 | 0.00 | 0.00 | 70 | 1010.4 |
| 20260509122447 | 67 | 124 | 7.0 | 20.0 | 0.00 | 0.00 | 0.00 | 70 | 1010.4 |
| 20260509122340 | 67 | 93 | 9.6 | 20.0 | 0.00 | 0.00 | 0.00 | 70 | 1010.5 |
| 20260509122239 | 67 | 114 | 10.4 | 20.0 | 0.00 | 0.00 | 0.00 | 69 | 1010.4 |
| 20260509122216 | 68 | 93 | 4.3 | 12.2 | 0.00 | 0.00 | 0.00 | 71 | 1010.8 |
| 20260509122140 | 67 | 113 | 8.7 | 20.0 | 0.00 | 0.00 | 0.00 | 68 | 1010.5 |
| 20260509122038 | 67 | 109 | 8.7 | 16.5 | 0.00 | 0.00 | 0.00 | 69 | 1010.4 |
| 20260509121948 | 67 | 102 | 6.1 | 16.5 | 0.00 | 0.00 | 0.00 | 69 | 1010.4 |
| 20260509121906 | 67 | 126 | 7.8 | 16.5 | 0.00 | 0.00 | 0.00 | 69 | 1010.4 |
| 20260509121823 | 67 | 135 | 9.6 | 16.5 | 0.00 | 0.00 | 0.00 | 69 | 1010.4 |
| 20260509121743 | 67 | 86 | 9.6 | 15.6 | 0.00 | 0.00 | 0.00 | 69 | 1010.5 |
| 20260509121659 | 67 | 98 | 9.6 | 15.6 | 0.00 | 0.00 | 0.00 | 69 | 1010.6 |
| 20260509121251 | 67 | 93 | 9.6 | 13.9 | 0.00 | 0.00 | 0.00 | 69 | 1010.4 |
| 20260509121208 | 67 | 99 | 8.7 | 13.9 | 0.00 | 0.00 | 0.00 | 69 | 1010.5 |
| 20260509121112 | 68 | 99 | 7.0 | 13.9 | 0.00 | 0.00 | 0.00 | 69 | 1010.4 |
| 20260509120925 | 68 | 111 | 7.0 | 13.9 | 0.00 | 0.00 | 0.00 | 70 | 1010.4 |
| 20260509120841 | 68 | 116 | 7.8 | 13.9 | 0.00 | 0.00 | 0.00 | 70 | 1010.4 |
| 20260509120759 | 68 | 110 | 7.8 | 13.9 | 0.00 | 0.00 | 0.00 | 68 | 1010.3 |
| 20260509120517 | 68 | 119 | 8.7 | 15.6 | 0.00 | 0.00 | 0.00 | 69 | 1010.3 |
| 20260509120417 | 68 | 142 | 8.7 | 20.0 | 0.00 | 0.00 | 0.00 | 69 | 1010.3 |
| 20260509120314 | 68 | 102 | 7.8 | 20.0 | 0.00 | 0.00 | 0.00 | 69 | 1010.3 |
| 20260509120231 | 68 | 123 | 7.8 | 20.0 | 0.00 | 0.00 | 0.00 | 69 | 1010.3 |
| 20260509120149 | 68 | 87 | 7.0 | 20.0 | 0.00 | 0.00 | 0.00 | 71 | 1010.3 |
| 20260509120105 | 68 | 136 | 5.2 | 20.0 | 0.00 | 0.00 | 0.00 | 71 | 1010.3 |
| 20260509115808 | 68 | 100 | 9.6 | 20.0 | 0.00 | 0.00 | 0.00 | 69 | 1010.4 |
| 20260509115706 | 68 | 119 | 9.6 | 20.0 | 0.00 | 0.00 | 0.00 | 69 | 1010.4 |
| 20260509115605 | 68 | 95 | 9.6 | 20.0 | 0.00 | 0.00 | 0.00 | 68 | 1010.5 |
| 20260509115523 | 67 | 138 | 6.1 | 13.9 | 0.00 | 0.00 | 0.00 | 67 | 1010.9 |
| 20260509115506 | 68 | 95 | 7.8 | 20.0 | 0.00 | 0.00 | 0.00 | 69 | 1010.4 |
| 20260509115403 | 68 | 102 | 7.8 | 18.2 | 0.00 | 0.00 | 0.00 | 68 | 1010.5 |
| 20260509115302 | 68 | 117 | 9.6 | 18.2 | 0.00 | 0.00 | 0.00 | 68 | 1010.4 |
| 20260509115201 | 68 | 78 | 9.6 | 18.2 | 0.00 | 0.00 | 0.00 | 68 | 1010.4 |
| 20260509115059 | 68 | 74 | 9.6 | 18.2 | 0.00 | 0.00 | 0.00 | 68 | 1010.5 |
| 20260509114958 | 68 | 106 | 9.6 | 16.5 | 0.00 | 0.00 | 0.00 | 68 | 1010.4 |
| 20260509114905 | 68 | 129 | 7.8 | 16.5 | 0.00 | 0.00 | 0.00 | 68 | 1010.5 |
| 20260509114822 | 69 | 70 | 7.0 | 13.0 | 0.00 | 0.00 | 0.00 | 69 | 1010.4 |
| 20260509114741 | 68 | 62 | 7.8 | 15.6 | 0.00 | 0.00 | 0.00 | 69 | 1010.4 |
| 20260509114528 | 67 | 100 | 7.8 | 13.0 | 0.00 | 0.00 | 0.00 | 68 | 1011.2 |
| 20260509114455 | 69 | 93 | 8.7 | 15.6 | 0.00 | 0.00 | 0.00 | 69 | 1010.3 |
| 20260509114432 | 67 | 129 | 7.0 | 13.0 | 0.00 | 0.00 | 0.00 | 69 | 1011.1 |
| 20260509114400 | 69 | 72 | 7.0 | 15.6 | 0.00 | 0.00 | 0.00 | 69 | 1010.4 |
| 20260509114317 | 69 | 111 | 5.2 | 15.6 | 0.00 | 0.00 | 0.00 | 69 | 1010.4 |
| 20260509114234 | 68 | 74 | 6.1 | 15.6 | 0.00 | 0.00 | 0.00 | 68 | 1010.4 |
| 20260509113947 | 68 | 114 | 7.8 | 15.6 | 0.00 | 0.00 | 0.00 | 69 | 1010.5 |
| 20260509113905 | 67 | 116 | 7.8 | 14.8 | 0.00 | 0.00 | 0.00 | 68 | 1011.3 |
| 20260509113846 | 68 | 95 | 7.8 | 15.6 | 0.00 | 0.00 | 0.00 | 67 | 1010.5 |
| 20260509113818 | 67 | 61 | 7.8 | 14.8 | 0.00 | 0.00 | 0.00 | 68 | 1011.2 |
| 20260509113754 | 68 | 117 | 7.8 | 15.6 | 0.00 | 0.00 | 0.00 | 67 | 1010.6 |
| 20260509113709 | 68 | 104 | 9.6 | 14.8 | 0.00 | 0.00 | 0.00 | 68 | 1010.6 |
| 20260509113623 | 68 | 80 | 9.6 | 14.8 | 0.00 | 0.00 | 0.00 | 68 | 1010.6 |
| 20260509113340 | 68 | 61 | 9.6 | 14.8 | 0.00 | 0.00 | 0.00 | 69 | 1010.6 |
| 20260509113239 | 68 | 107 | 9.6 | 14.8 | 0.00 | 0.00 | 0.00 | 68 | 1010.7 |
| 20260509113138 | 68 | 90 | 9.6 | 14.8 | 0.00 | 0.00 | 0.00 | 68 | 1010.7 |
| 20260509113046 | 68 | 57 | 8.7 | 14.8 | 0.00 | 0.00 | 0.00 | 68 | 1010.7 |
| 20260509112940 | 68 | 102 | 7.0 | 13.9 | 0.00 | 0.00 | 0.00 | 70 | 1010.6 |
| 20260509112855 | 69 | 103 | 4.3 | 12.2 | 0.00 | 0.00 | 0.00 | 70 | 1010.7 |
| 20260509112811 | 68 | 119 | 2.6 | 12.2 | 0.00 | 0.00 | 0.00 | 71 | 1010.7 |
| 20260509112601 | 66 | 71 | 7.0 | 13.9 | 0.00 | 0.00 | 0.00 | 70 | 1011.1 |
| 20260509112529 | 68 | 101 | 6.1 | 13.9 | 0.00 | 0.00 | 0.00 | 69 | 1010.8 |
| 20260509112436 | 68 | 130 | 7.0 | 13.9 | 0.00 | 0.00 | 0.00 | 69 | 1010.8 |
| 20260509112351 | 68 | 63 | 7.8 | 13.9 | 0.00 | 0.00 | 0.00 | 67 | 1010.9 |
| 20260509112308 | 68 | 126 | 5.2 | 13.9 | 0.00 | 0.00 | 0.00 | 68 | 1010.9 |
| 20260509112042 | 68 | 119 | 6.1 | 13.9 | 0.00 | 0.00 | 0.00 | 68 | 1010.9 |
| 20260509112001 | 68 | 92 | 7.0 | 13.9 | 0.00 | 0.00 | 0.00 | 67 | 1010.9 |
| 20260509111916 | 68 | 114 | 7.0 | 13.9 | 0.00 | 0.00 | 0.00 | 67 | 1010.9 |
| 20260509111717 | 68 | 92 | 7.0 | 13.9 | 0.00 | 0.00 | 0.00 | 67 | 1010.9 |
| 20260509111630 | 66 | 108 | 5.2 | 13.0 | 0.00 | 0.00 | 0.00 | 72 | 1011.0 |
| 20260509111614 | 68 | 121 | 7.8 | 13.9 | 0.00 | 0.00 | 0.00 | 66 | 1010.9 |
| 20260509111514 | 68 | 130 | 7.8 | 11.3 | 0.00 | 0.00 | 0.00 | 66 | 1010.9 |
| 20260509111410 | 68 | 96 | 7.0 | 11.3 | 0.00 | 0.00 | 0.00 | 68 | 1010.9 |
| 20260509111313 | 68 | 135 | 5.2 | 12.2 | 0.00 | 0.00 | 0.00 | 68 | 1010.9 |
| 20260509111209 | 68 | 130 | 4.3 | 12.2 | 0.00 | 0.00 | 0.00 | 69 | 1010.9 |
| 20260509111129 | 65 | 100 | 7.8 | 13.0 | 0.00 | 0.00 | 0.00 | 70 | 1011.1 |
| 20260509111108 | 68 | 100 | 7.8 | 12.2 | 0.00 | 0.00 | 0.00 | 68 | 1010.9 |
| 20260509111008 | 67 | 113 | 7.0 | 13.9 | 0.00 | 0.00 | 0.00 | 67 | 1011.0 |
| 20260509110909 | 67 | 71 | 7.0 | 13.9 | 0.00 | 0.00 | 0.00 | 67 | 1011.0 |
| 20260509110840 | 65 | 92 | 7.0 | 13.0 | 0.00 | 0.00 | 0.00 | 71 | 1011.2 |
| 20260509110815 | 67 | 119 | 7.0 | 13.9 | 0.00 | 0.00 | 0.00 | 68 | 1011.0 |
| 20260509110729 | 67 | 123 | 7.8 | 13.9 | 0.00 | 0.00 | 0.00 | 67 | 1011.0 |
| 20260509110647 | 67 | 116 | 7.8 | 13.9 | 0.00 | 0.00 | 0.00 | 68 | 1011.0 |
| 20260509110359 | 67 | 76 | 6.1 | 13.9 | 0.00 | 0.00 | 0.00 | 68 | 1011.0 |
| 20260509110257 | 67 | 130 | 7.8 | 13.9 | 0.00 | 0.00 | 0.00 | 67 | 1011.0 |
| 20260509110158 | 67 | 121 | 7.0 | 13.9 | 0.00 | 0.00 | 0.00 | 67 | 1011.0 |
| 20260509110137 | 65 | 103 | 8.7 | 13.0 | 0.00 | 0.00 | 0.00 | 70 | 1011.2 |
| 20260509110105 | 67 | 131 | 7.8 | 13.9 | 0.00 | 0.00 | 0.00 | 68 | 1011.0 |
| 20260509105956 | 67 | 93 | 7.8 | 13.9 | 0.00 | 0.00 | 0.00 | 66 | 1011.0 |
| 20260509105927 | 65 | 88 | 6.1 | 13.0 | 0.00 | 0.00 | 0.00 | 70 | 1011.3 |
| 20260509105855 | 67 | 103 | 7.8 | 13.9 | 0.00 | 0.00 | 0.00 | 68 | 1011.0 |
| 20260509105754 | 67 | 86 | 7.8 | 12.2 | 0.00 | 0.00 | 0.00 | 68 | 1011.0 |
| 20260509105659 | 67 | 96 | 6.1 | 13.0 | 0.00 | 0.00 | 0.00 | 68 | 1011.1 |
| 20260509105617 | 67 | 112 | 6.1 | 13.0 | 0.00 | 0.00 | 0.00 | 68 | 1011.1 |
| 20260509105534 | 67 | 0 | 6.1 | 13.0 | 0.00 | 0.00 | 0.00 | 68 | 1011.1 |
| 20260509105448 | 67 | 88 | 7.0 | 13.0 | 0.00 | 0.00 | 0.00 | 67 | 1011.1 |
| 20260509105407 | 67 | 95 | 7.8 | 13.0 | 0.00 | 0.00 | 0.00 | 69 | 1011.2 |
| 20260509105325 | 67 | 110 | 8.7 | 13.0 | 0.00 | 0.00 | 0.00 | 68 | 1011.1 |
| 20260509104914 | 67 | 86 | 8.7 | 14.8 | 0.00 | 0.00 | 0.00 | 68 | 1011.2 |
| 20260509104832 | 67 | 111 | 7.8 | 14.8 | 0.00 | 0.00 | 0.00 | 68 | 1011.2 |
| 20260509104748 | 67 | 111 | 4.3 | 14.8 | 0.00 | 0.00 | 0.00 | 69 | 1011.2 |
| 20260509104706 | 67 | 115 | 5.2 | 14.8 | 0.00 | 0.00 | 0.00 | 69 | 1011.2 |
| 20260509104238 | 67 | 104 | 7.8 | 14.8 | 0.00 | 0.00 | 0.00 | 69 | 1011.2 |
| 20260509104228 | 64 | 63 | 6.1 | 13.9 | 0.00 | 0.00 | 0.00 | 71 | 1011.3 |
| 20260509104157 | 64 | 104 | 6.1 | 13.9 | 0.00 | 0.00 | 0.00 | 73 | 1011.3 |
| 20260509104136 | 66 | 109 | 9.6 | 14.8 | 0.00 | 0.00 | 0.00 | 68 | 1011.2 |
| 20260509104037 | 66 | 96 | 9.6 | 14.8 | 0.00 | 0.00 | 0.00 | 68 | 1011.1 |
| 20260509103933 | 66 | 84 | 8.7 | 14.8 | 0.00 | 0.00 | 0.00 | 68 | 1011.1 |
| 20260509103830 | 66 | 119 | 9.6 | 13.0 | 0.00 | 0.00 | 0.00 | 67 | 1011.1 |
| 20260509103735 | 67 | 98 | 8.7 | 13.9 | 0.00 | 0.00 | 0.00 | 67 | 1011.2 |
| 20260509103652 | 67 | 121 | 7.8 | 13.9 | 0.00 | 0.00 | 0.00 | 68 | 1011.1 |
| 20260509103606 | 67 | 130 | 7.0 | 13.9 | 0.00 | 0.00 | 0.00 | 69 | 1011.1 |
| 20260509103524 | 67 | 102 | 7.8 | 13.9 | 0.00 | 0.00 | 0.00 | 70 | 1011.0 |
| 20260509103442 | 67 | 138 | 7.8 | 13.9 | 0.00 | 0.00 | 0.00 | 69 | 1011.0 |
| 20260509103214 | 66 | 142 | 5.2 | 13.9 | 0.00 | 0.00 | 0.00 | 69 | 1011.1 |
| 20260509102946 | 66 | 105 | 7.8 | 13.9 | 0.00 | 0.00 | 0.00 | 69 | 1011.0 |
| 20260509102901 | 66 | 110 | 6.1 | 13.0 | 0.00 | 0.00 | 0.00 | 71 | 1011.0 |
| 20260509102639 | 64 | 117 | 7.0 | 13.0 | 0.00 | 0.00 | 0.00 | 73 | 1011.5 |
| 20260509102617 | 66 | 79 | 5.2 | 13.0 | 0.00 | 0.00 | 0.00 | 70 | 1011.1 |
| 20260509102520 | 66 | 82 | 7.8 | 13.0 | 0.00 | 0.00 | 0.00 | 71 | 1011.1 |
| 20260509102507 | 64 | 133 | 7.8 | 13.0 | 0.00 | 0.00 | 0.00 | 73 | 1011.5 |
| 20260509102415 | 65 | 65 | 7.8 | 13.0 | 0.00 | 0.00 | 0.00 | 70 | 1011.1 |
| 20260509102330 | 65 | 95 | 8.7 | 13.0 | 0.00 | 0.00 | 0.00 | 70 | 1011.1 |
| 20260509102212 | 65 | 88 | 7.8 | 13.0 | 0.00 | 0.00 | 0.00 | 71 | 1011.1 |
| 20260509102128 | 65 | 104 | 7.8 | 13.0 | 0.00 | 0.00 | 0.00 | 70 | 1011.1 |
| 20260509102048 | 65 | 107 | 7.8 | 13.0 | 0.00 | 0.00 | 0.00 | 70 | 1011.2 |
| 20260509102003 | 65 | 93 | 7.0 | 13.0 | 0.00 | 0.00 | 0.00 | 70 | 1011.1 |
| 20260509101603 | 65 | 67 | 8.7 | 13.0 | 0.00 | 0.00 | 0.00 | 69 | 1011.1 |
| 20260509101510 | 65 | 121 | 7.0 | 13.0 | 0.00 | 0.00 | 0.00 | 71 | 1011.2 |
| 20260509101427 | 65 | 72 | 7.0 | 13.0 | 0.00 | 0.00 | 0.00 | 70 | 1011.1 |
| 20260509101342 | 65 | 65 | 7.8 | 13.0 | 0.00 | 0.00 | 0.00 | 70 | 1011.2 |
| 20260509101059 | 65 | 128 | 5.2 | 13.0 | 0.00 | 0.00 | 0.00 | 71 | 1011.2 |
| 20260509101012 | 65 | 88 | 6.1 | 12.2 | 0.00 | 0.00 | 0.00 | 71 | 1011.1 |
| 20260509100930 | 65 | 83 | 7.8 | 13.0 | 0.00 | 0.00 | 0.00 | 70 | 1011.2 |
| 20260509100833 | 65 | 90 | 7.8 | 13.0 | 0.00 | 0.00 | 0.00 | 70 | 1011.2 |
| 20260509100748 | 65 | 103 | 7.8 | 13.0 | 0.00 | 0.00 | 0.00 | 70 | 1011.2 |
| 20260509100511 | 65 | 106 | 7.8 | 13.0 | 0.00 | 0.00 | 0.00 | 70 | 1011.2 |
| 20260509100427 | 65 | 70 | 6.1 | 13.0 | 0.00 | 0.00 | 0.00 | 71 | 1011.2 |
| 20260509100146 | 65 | 134 | 6.1 | 13.0 | 0.00 | 0.00 | 0.00 | 71 | 1011.2 |
| 20260509100103 | 65 | 85 | 6.1 | 13.0 | 0.00 | 0.00 | 0.00 | 70 | 1011.3 |
| 20260509100007 | 65 | 110 | 6.1 | 13.0 | 0.00 | 0.00 | 0.00 | 72 | 1011.3 |
| 20260509095925 | 64 | 110 | 6.1 | 12.2 | 0.00 | 0.00 | 0.00 | 71 | 1011.3 |
| 20260509095843 | 64 | 121 | 7.8 | 12.2 | 0.00 | 0.00 | 0.00 | 71 | 1011.3 |
| 20260509095759 | 64 | 109 | 7.8 | 13.9 | 0.00 | 0.00 | 0.00 | 70 | 1011.5 |
| 20260509095338 | 64 | 88 | 7.0 | 13.9 | 0.00 | 0.00 | 0.00 | 71 | 1011.3 |
| 20260509095322 | 63 | 69 | 7.0 | 15.6 | 0.00 | 0.00 | 0.00 | 75 | 1011.3 |
| 20260509095235 | 64 | 88 | 7.0 | 13.9 | 0.00 | 0.00 | 0.00 | 71 | 1011.3 |
| 20260509095137 | 64 | 93 | 6.1 | 13.9 | 0.00 | 0.00 | 0.00 | 71 | 1011.5 |
| 20260509095030 | 64 | 119 | 6.1 | 13.9 | 0.00 | 0.00 | 0.00 | 71 | 1011.3 |
| 20260509094928 | 64 | 103 | 7.0 | 13.9 | 0.00 | 0.00 | 0.00 | 72 | 1011.3 |
| 20260509094839 | 64 | 104 | 8.7 | 13.9 | 0.00 | 0.00 | 0.00 | 71 | 1011.3 |
| 20260509094756 | 64 | 93 | 7.8 | 13.9 | 0.00 | 0.00 | 0.00 | 71 | 1011.3 |
| 20260509094712 | 64 | 88 | 5.2 | 13.0 | 0.00 | 0.00 | 0.00 | 72 | 1011.5 |
| 20260509094633 | 64 | 111 | 7.0 | 13.0 | 0.00 | 0.00 | 0.00 | 71 | 1011.5 |
| 20260509094546 | 64 | 79 | 7.0 | 13.0 | 0.00 | 0.00 | 0.00 | 73 | 1011.6 |
| 20260509094327 | 64 | 108 | 7.8 | 13.0 | 0.00 | 0.00 | 0.00 | 71 | 1011.5 |
| 20260509094104 | 64 | 69 | 6.1 | 13.0 | 0.00 | 0.00 | 0.00 | 73 | 1011.5 |
| 20260509093817 | 64 | 72 | 10.4 | 13.0 | 0.00 | 0.00 | 0.00 | 70 | 1011.5 |
| 20260509093714 | 65 | 113 | 9.6 | 13.0 | 0.00 | 0.00 | 0.00 | 71 | 1011.7 |
| 20260509093637 | 63 | 88 | 5.2 | 11.3 | 0.00 | 0.00 | 0.00 | 75 | 1011.5 |
| 20260509093613 | 65 | 108 | 7.0 | 13.0 | 0.00 | 0.00 | 0.00 | 73 | 1011.6 |
| 20260509093512 | 64 | 80 | 6.1 | 13.0 | 0.00 | 0.00 | 0.00 | 74 | 1011.6 |
| 20260509093415 | 64 | 115 | 4.3 | 13.9 | 0.00 | 0.00 | 0.00 | 74 | 1011.6 |
| 20260509093405 | 62 | 107 | 4.3 | 9.6 | 0.00 | 0.00 | 0.00 | 77 | 1011.5 |
| 20260509093312 | 64 | 113 | 5.2 | 13.9 | 0.00 | 0.00 | 0.00 | 75 | 1011.5 |
| 20260509093213 | 64 | 57 | 7.0 | 13.9 | 0.00 | 0.00 | 0.00 | 74 | 1011.5 |
| 20260509093202 | 62 | 104 | 7.0 | 9.6 | 0.00 | 0.00 | 0.00 | 77 | 1011.3 |
| 20260509093117 | 64 | 129 | 7.0 | 13.9 | 0.00 | 0.00 | 0.00 | 75 | 1011.5 |
| 20260509093033 | 64 | 46 | 7.8 | 13.9 | 0.00 | 0.00 | 0.00 | 74 | 1011.5 |
| 20260509092951 | 64 | 76 | 7.0 | 15.6 | 0.00 | 0.00 | 0.00 | 75 | 1011.5 |
| 20260509092707 | 63 | 63 | 8.7 | 15.6 | 0.00 | 0.00 | 0.00 | 74 | 1011.3 |
| 20260509092606 | 64 | 69 | 7.0 | 15.6 | 0.00 | 0.00 | 0.00 | 74 | 1011.2 |
| 20260509092507 | 64 | 54 | 5.2 | 15.6 | 0.00 | 0.00 | 0.00 | 74 | 1011.2 |
| 20260509092400 | 64 | 63 | 5.2 | 15.6 | 0.00 | 0.00 | 0.00 | 74 | 1011.2 |
| 20260509092257 | 64 | 78 | 7.8 | 15.6 | 0.00 | 0.00 | 0.00 | 74 | 1011.2 |
| 20260509092156 | 64 | 69 | 8.7 | 15.6 | 0.00 | 0.00 | 0.00 | 72 | 1011.2 |
| 20260509092055 | 64 | 96 | 9.6 | 15.6 | 0.00 | 0.00 | 0.00 | 73 | 1011.2 |
| 20260509091954 | 64 | 107 | 7.8 | 15.6 | 0.00 | 0.00 | 0.00 | 73 | 1011.3 |
| 20260509091856 | 64 | 139 | 7.0 | 13.0 | 0.00 | 0.00 | 0.00 | 74 | 1011.5 |
| 20260509091756 | 64 | 117 | 5.2 | 13.0 | 0.00 | 0.00 | 0.00 | 74 | 1011.5 |
| 20260509091652 | 64 | 108 | 4.3 | 13.0 | 0.00 | 0.00 | 0.00 | 75 | 1011.5 |
| 20260509091602 | 63 | 29 | 5.2 | 13.0 | 0.00 | 0.00 | 0.00 | 76 | 1011.5 |
| 20260509091516 | 63 | 137 | 7.8 | 13.0 | 0.00 | 0.00 | 0.00 | 75 | 1011.5 |
| 20260509091431 | 63 | 99 | 7.0 | 13.0 | 0.00 | 0.00 | 0.00 | 74 | 1011.6 |
| 20260509091335 | 63 | 129 | 4.3 | 13.0 | 0.00 | 0.00 | 0.00 | 76 | 1011.5 |
| 20260509091238 | 63 | 126 | 5.2 | 11.3 | 0.00 | 0.00 | 0.00 | 75 | 1011.6 |
| 20260509090944 | 63 | 129 | 4.3 | 11.3 | 0.00 | 0.00 | 0.00 | 75 | 1011.6 |
| 20260509090935 | 61 | 126 | 7.0 | 11.3 | 0.00 | 0.00 | 0.00 | 79 | 1011.2 |
| 20260509090858 | 63 | 119 | 3.5 | 9.6 | 0.00 | 0.00 | 0.00 | 77 | 1011.5 |
| 20260509090815 | 62 | 105 | 4.3 | 9.6 | 0.00 | 0.00 | 0.00 | 77 | 1011.3 |
| 20260509090732 | 62 | 72 | 5.2 | 9.6 | 0.00 | 0.00 | 0.00 | 76 | 1011.5 |
| 20260509090504 | 62 | 101 | 4.3 | 9.6 | 0.00 | 0.00 | 0.00 | 78 | 1011.5 |
| 20260509090422 | 62 | 119 | 6.1 | 9.6 | 0.00 | 0.00 | 0.00 | 76 | 1011.5 |
| 20260509090139 | 62 | 104 | 5.2 | 11.3 | 0.00 | 0.00 | 0.00 | 77 | 1011.3 |
| 20260509090037 | 62 | 121 | 5.2 | 13.0 | 0.00 | 0.00 | 0.00 | 78 | 1011.3 |
| 20260509090007 | 60 | 77 | 6.1 | 11.3 | 0.00 | 0.00 | 0.00 | 80 | 1011.5 |
| 20260509085935 | 62 | 103 | 5.2 | 13.0 | 0.00 | 0.00 | 0.00 | 77 | 1011.3 |
| 20260509085920 | 61 | 63 | 7.0 | 11.3 | 0.00 | 0.00 | 0.00 | 80 | 1011.6 |
| 20260509085828 | 62 | 111 | 5.2 | 13.0 | 0.00 | 0.00 | 0.00 | 77 | 1011.3 |
| 20260509085732 | 62 | 105 | 4.3 | 13.0 | 0.00 | 0.00 | 0.00 | 78 | 1011.3 |
| 20260509085633 | 62 | 69 | 4.3 | 13.0 | 0.00 | 0.00 | 0.00 | 77 | 1011.3 |
| 20260509085552 | 60 | 74 | 6.1 | 11.3 | 0.00 | 0.00 | 0.00 | 80 | 1011.8 |
| 20260509085530 | 62 | 102 | 3.5 | 13.0 | 0.00 | 0.00 | 0.00 | 78 | 1011.5 |
| 20260509085430 | 62 | 72 | 5.2 | 13.0 | 0.00 | 0.00 | 0.00 | 79 | 1011.5 |
| 20260509085357 | 60 | 65 | 6.1 | 11.3 | 0.00 | 0.00 | 0.00 | 81 | 1011.7 |
| 20260509085328 | 61 | 128 | 6.1 | 13.0 | 0.00 | 0.00 | 0.00 | 77 | 1011.5 |
| 20260509085229 | 61 | 97 | 7.0 | 13.0 | 0.00 | 0.00 | 0.00 | 78 | 1011.5 |
| 20260509085217 | 60 | 90 | 6.1 | 12.2 | 0.00 | 0.00 | 0.00 | 81 | 1011.6 |
| 20260509085127 | 61 | 123 | 6.1 | 13.0 | 0.00 | 0.00 | 0.00 | 78 | 1011.5 |
| 20260509085101 | 60 | 124 | 6.1 | 13.9 | 0.00 | 0.00 | 0.00 | 81 | 1011.8 |
| 20260509085024 | 61 | 113 | 5.2 | 12.2 | 0.00 | 0.00 | 0.00 | 78 | 1011.5 |
| 20260509084924 | 61 | 129 | 6.1 | 12.2 | 0.00 | 0.00 | 0.00 | 77 | 1011.3 |
| 20260509084822 | 61 | 63 | 7.0 | 12.2 | 0.00 | 0.00 | 0.00 | 78 | 1011.5 |
| 20260509084730 | 62 | 88 | 6.1 | 12.2 | 0.00 | 0.00 | 0.00 | 79 | 1011.3 |
| 20260509084634 | 61 | 67 | 5.2 | 10.4 | 0.00 | 0.00 | 0.00 | 80 | 1011.5 |
| 20260509084551 | 61 | 109 | 4.3 | 10.4 | 0.00 | 0.00 | 0.00 | 80 | 1011.3 |
| 20260509084504 | 61 | 83 | 6.1 | 10.4 | 0.00 | 0.00 | 0.00 | 79 | 1011.3 |
| 20260509084315 | 61 | 57 | 4.3 | 11.3 | 0.00 | 0.00 | 0.00 | 79 | 1011.3 |
| 20260509084230 | 61 | 79 | 4.3 | 11.3 | 0.00 | 0.00 | 0.00 | 80 | 1011.2 |
| 20260509084126 | 61 | 93 | 4.3 | 11.3 | 0.00 | 0.00 | 0.00 | 79 | 1011.2 |
| 20260509084044 | 61 | 139 | 4.3 | 11.3 | 0.00 | 0.00 | 0.00 | 79 | 1011.2 |
| 20260509083958 | 61 | 138 | 5.2 | 11.3 | 0.00 | 0.00 | 0.00 | 79 | 1011.2 |
| 20260509083916 | 61 | 88 | 5.2 | 11.3 | 0.00 | 0.00 | 0.00 | 79 | 1011.2 |
| 20260509083832 | 61 | 134 | 7.0 | 11.3 | 0.00 | 0.00 | 0.00 | 79 | 1011.2 |
| 20260509083611 | 61 | 109 | 7.0 | 11.3 | 0.00 | 0.00 | 0.00 | 80 | 1011.3 |
| 20260509083525 | 61 | 93 | 6.1 | 11.3 | 0.00 | 0.00 | 0.00 | 80 | 1011.5 |
| 20260509083442 | 61 | 116 | 5.2 | 11.3 | 0.00 | 0.00 | 0.00 | 80 | 1011.5 |
| 20260509083358 | 61 | 85 | 5.2 | 11.3 | 0.00 | 0.00 | 0.00 | 81 | 1011.6 |
| 20260509082952 | 61 | 110 | 7.0 | 11.3 | 0.00 | 0.00 | 0.00 | 80 | 1011.6 |
| 20260509082654 | 61 | 98 | 7.0 | 11.3 | 0.00 | 0.00 | 0.00 | 80 | 1011.7 |
| 20260509082612 | 61 | 98 | 6.1 | 11.3 | 0.00 | 0.00 | 0.00 | 80 | 1011.7 |
| 20260509082530 | 61 | 71 | 6.1 | 11.3 | 0.00 | 0.00 | 0.00 | 80 | 1011.7 |
| 20260509082446 | 61 | 50 | 6.1 | 11.3 | 0.00 | 0.00 | 0.00 | 81 | 1011.8 |
| 20260509082404 | 60 | 101 | 7.0 | 11.3 | 0.00 | 0.00 | 0.00 | 80 | 1011.7 |
| 20260509082141 | 60 | 87 | 5.2 | 11.3 | 0.00 | 0.00 | 0.00 | 82 | 1011.8 |
| 20260509082056 | 60 | 84 | 5.2 | 11.3 | 0.00 | 0.00 | 0.00 | 81 | 1011.8 |
| 20260509082010 | 60 | 90 | 5.2 | 11.3 | 0.00 | 0.00 | 0.00 | 82 | 1011.8 |
| 20260509081746 | 60 | 93 | 6.1 | 11.3 | 0.00 | 0.00 | 0.00 | 81 | 1011.7 |
| 20260509081651 | 60 | 138 | 6.1 | 12.2 | 0.00 | 0.00 | 0.00 | 81 | 1011.6 |
| 20260509081417 | 60 | 111 | 7.0 | 12.2 | 0.00 | 0.00 | 0.00 | 81 | 1011.7 |
| 20260509081334 | 60 | 119 | 7.8 | 13.9 | 0.00 | 0.00 | 0.00 | 80 | 1011.8 |
| 20260509081051 | 60 | 111 | 6.1 | 13.9 | 0.00 | 0.00 | 0.00 | 82 | 1011.8 |
| 20260509081008 | 60 | 87 | 5.2 | 13.9 | 0.00 | 0.00 | 0.00 | 82 | 1011.8 |
| 20260509080930 | 60 | 128 | 6.1 | 13.9 | 0.00 | 0.00 | 0.00 | 82 | 1011.8 |
| 20260509080847 | 59 | 59 | 7.8 | 13.9 | 0.00 | 0.00 | 0.00 | 81 | 1011.8 |
| 20260509080804 | 59 | 102 | 8.7 | 13.9 | 0.00 | 0.00 | 0.00 | 81 | 1011.8 |
| 20260509080530 | 59 | 67 | 8.7 | 13.9 | 0.00 | 0.00 | 0.00 | 81 | 1011.7 |
| 20260509080232 | 60 | 86 | 8.7 | 13.0 | 0.00 | 0.00 | 0.00 | 82 | 1011.8 |
| 20260509080217 | 59 | 93 | 7.0 | 13.0 | 0.00 | 0.00 | 0.00 | 84 | 1011.8 |
| 20260509080126 | 60 | 81 | 7.8 | 13.0 | 0.00 | 0.00 | 0.00 | 82 | 1011.6 |
| 20260509080031 | 59 | 78 | 7.0 | 13.0 | 0.00 | 0.00 | 0.00 | 84 | 1011.7 |
| 20260509075946 | 59 | 77 | 7.8 | 13.0 | 0.00 | 0.00 | 0.00 | 83 | 1011.8 |
| 20260509075904 | 59 | 88 | 7.8 | 13.0 | 0.00 | 0.00 | 0.00 | 83 | 1011.7 |
| 20260509075623 | 59 | 75 | 7.0 | 13.0 | 0.00 | 0.00 | 0.00 | 84 | 1011.8 |
| 20260509075518 | 59 | 90 | 6.1 | 13.0 | 0.00 | 0.00 | 0.00 | 84 | 1011.9 |
| 20260509075418 | 59 | 86 | 5.2 | 13.0 | 0.00 | 0.00 | 0.00 | 85 | 1011.9 |
| 20260509075315 | 59 | 85 | 5.2 | 13.0 | 0.00 | 0.00 | 0.00 | 84 | 1011.9 |
| 20260509075215 | 59 | 104 | 7.8 | 13.0 | 0.00 | 0.00 | 0.00 | 83 | 1012.0 |
| 20260509075116 | 59 | 59 | 7.0 | 13.0 | 0.00 | 0.00 | 0.00 | 83 | 1012.0 |
| 20260509075100 | 59 | 77 | 4.3 | 10.4 | 0.00 | 0.00 | 0.00 | 86 | 1012.1 |
| 20260509075024 | 59 | 69 | 7.8 | 13.0 | 0.00 | 0.00 | 0.00 | 84 | 1012.0 |
| 20260509074902 | 59 | 84 | 7.8 | 13.0 | 0.00 | 0.00 | 0.00 | 84 | 1012.1 |
| 20260509074808 | 59 | 86 | 7.8 | 10.4 | 0.00 | 0.00 | 0.00 | 84 | 1012.0 |
| 20260509074709 | 59 | 115 | 7.0 | 10.4 | 0.00 | 0.00 | 0.00 | 84 | 1012.0 |
| 20260509074605 | 59 | 97 | 6.1 | 10.4 | 0.00 | 0.00 | 0.00 | 84 | 1012.1 |
| 20260509074502 | 59 | 59 | 4.3 | 9.6 | 0.00 | 0.00 | 0.00 | 85 | 1012.1 |
| 20260509074402 | 59 | 79 | 2.6 | 9.6 | 0.00 | 0.00 | 0.00 | 86 | 1012.1 |
| 20260509074306 | 59 | 84 | 3.5 | 10.4 | 0.00 | 0.00 | 0.00 | 86 | 1012.1 |
| 20260509074222 | 59 | 54 | 4.3 | 10.4 | 0.00 | 0.00 | 0.00 | 85 | 1012.1 |
| 20260509074142 | 59 | 93 | 5.2 | 10.4 | 0.00 | 0.00 | 0.00 | 85 | 1012.0 |
| 20260509073859 | 59 | 76 | 3.5 | 10.4 | 0.00 | 0.00 | 0.00 | 87 | 1012.1 |
| 20260509073804 | 59 | 93 | 4.3 | 10.4 | 0.00 | 0.00 | 0.00 | 87 | 1012.1 |
| 20260509073721 | 58 | 96 | 4.3 | 10.4 | 0.00 | 0.00 | 0.00 | 87 | 1012.1 |
| 20260509073636 | 58 | 110 | 5.2 | 10.4 | 0.00 | 0.00 | 0.00 | 88 | 1012.1 |
| 20260509073448 | 58 | 111 | 5.2 | 10.4 | 0.00 | 0.00 | 0.00 | 88 | 1012.2 |
| 20260509073349 | 58 | 102 | 3.5 | 7.8 | 0.00 | 0.00 | 0.00 | 89 | 1012.1 |
| 20260509073338 | 54 | 88 | 1.7 | 5.2 | 0.00 | 0.00 | 0.00 | 95 | 1012.2 |
| 20260509073247 | 58 | 82 | 3.5 | 7.8 | 0.00 | 0.00 | 0.00 | 90 | 1012.1 |
| 20260509073146 | 58 | 101 | 3.5 | 7.0 | 0.00 | 0.00 | 0.00 | 90 | 1012.1 |
| 20260509073047 | 58 | 88 | 3.5 | 7.0 | 0.00 | 0.00 | 0.00 | 90 | 1012.2 |
| 20260509072944 | 58 | 144 | 3.5 | 7.0 | 0.00 | 0.00 | 0.00 | 91 | 1012.2 |
| 20260509072843 | 58 | 69 | 3.5 | 7.0 | 0.00 | 0.00 | 0.00 | 91 | 1012.2 |
| 20260509072801 | 53 | 339 | 2.6 | 3.5 | 0.00 | 0.00 | 0.00 | 94 | 1012.4 |
| 20260509072740 | 58 | 67 | 4.3 | 7.0 | 0.00 | 0.00 | 0.00 | 92 | 1012.2 |
| 20260509072640 | 57 | 93 | 4.3 | 7.0 | 0.00 | 0.00 | 0.00 | 93 | 1012.1 |
| 20260509072555 | 52 | 238 | 1.7 | 2.6 | 0.00 | 0.00 | 0.00 | 94 | 1012.6 |
| 20260509072541 | 57 | 69 | 4.3 | 7.0 | 0.00 | 0.00 | 0.00 | 94 | 1012.2 |
| 20260509072340 | 57 | 93 | 2.6 | 6.1 | 0.00 | 0.00 | 0.00 | 95 | 1012.2 |
| 20260509072319 | 51 | 309 | 1.7 | 2.6 | 0.00 | 0.00 | 0.00 | 94 | 1012.5 |
| 20260509072236 | 56 | 72 | 2.6 | 5.2 | 0.00 | 0.00 | 0.00 | 95 | 1012.2 |
| 20260509072217 | 51 | 341 | 1.7 | 3.5 | 0.00 | 0.00 | 0.00 | 94 | 1012.5 |
| 20260509072140 | 56 | 76 | 2.6 | 5.2 | 0.00 | 0.00 | 0.00 | 95 | 1012.2 |
| 20260509072100 | 55 | 106 | 2.6 | 5.2 | 0.00 | 0.00 | 0.00 | 95 | 1012.2 |
| 20260509072015 | 55 | 63 | 2.6 | 5.2 | 0.00 | 0.00 | 0.00 | 95 | 1012.2 |
| 20260509071934 | 54 | 221 | 2.6 | 5.2 | 0.00 | 0.00 | 0.00 | 94 | 1012.2 |
| 20260509071708 | 54 | 80 | 2.6 | 5.2 | 0.00 | 0.00 | 0.00 | 95 | 1012.2 |
| 20260509071454 | 51 | 59 | 1.7 | 3.5 | 0.00 | 0.00 | 0.00 | 94 | 1012.5 |
| 20260509071428 | 54 | 113 | 0.9 | 2.6 | 0.00 | 0.00 | 0.00 | 94 | 1012.3 |
| 20260509071330 | 54 | 76 | 0.9 | 2.6 | 0.00 | 0.00 | 0.00 | 94 | 1012.3 |
| 20260509071226 | 54 | 34 | 0.9 | 2.6 | 0.00 | 0.00 | 0.00 | 94 | 1012.3 |
| 20260509071125 | 53 | 34 | 0.9 | 2.6 | 0.00 | 0.00 | 0.00 | 94 | 1012.3 |
| 20260509071024 | 53 | 57 | 1.7 | 3.5 | 0.00 | 0.00 | 0.00 | 94 | 1012.3 |
| 20260509070923 | 53 | 80 | 1.7 | 3.5 | 0.00 | 0.00 | 0.00 | 94 | 1012.3 |
| 20260509070824 | 53 | 61 | 1.7 | 3.5 | 0.00 | 0.00 | 0.00 | 94 | 1012.4 |
| 20260509070810 | 49 | 51 | 0.0 | 1.7 | 0.00 | 0.00 | 0.00 | 94 | 1012.6 |
| 20260509070742 | 49 | 238 | 0.0 | 1.7 | 0.00 | 0.00 | 0.00 | 94 | 1012.7 |
| 20260509070721 | 53 | 74 | 1.7 | 3.5 | 0.00 | 0.00 | 0.00 | 94 | 1012.3 |
| 20260509070632 | 53 | 17 | 1.7 | 3.5 | 0.00 | 0.00 | 0.00 | 94 | 1012.3 |
| 20260509070553 | 49 | 265 | 0.9 | 1.7 | 0.00 | 0.00 | 0.00 | 94 | 1012.6 |
| 20260509070518 | 53 | 9 | 1.7 | 3.5 | 0.00 | 0.00 | 0.00 | 94 | 1012.4 |
| 20260509070428 | 53 | 17 | 1.7 | 3.5 | 0.00 | 0.00 | 0.00 | 94 | 1012.4 |
| 20260509070344 | 53 | 56 | 1.7 | 3.5 | 0.00 | 0.00 | 0.00 | 94 | 1012.4 |
| 20260509070301 | 53 | 9 | 2.6 | 3.5 | 0.00 | 0.00 | 0.00 | 94 | 1012.4 |
| 20260509070013 | 52 | 312 | 2.6 | 3.5 | 0.00 | 0.00 | 0.00 | 94 | 1012.4 |
| 20260509065951 | 49 | 221 | 0.9 | 1.7 | 0.00 | 0.00 | 0.00 | 94 | 1012.7 |
| 20260509065911 | 52 | 312 | 1.7 | 2.6 | 0.00 | 0.00 | 0.00 | 94 | 1012.5 |
| 20260509065828 | 52 | 316 | 1.7 | 2.6 | 0.00 | 0.00 | 0.00 | 94 | 1012.5 |
| 20260509065745 | 52 | 298 | 1.7 | 2.6 | 0.00 | 0.00 | 0.00 | 94 | 1012.6 |
| 20260509065507 | 52 | 284 | 1.7 | 2.6 | 0.00 | 0.00 | 0.00 | 94 | 1012.5 |
| 20260509065425 | 52 | 279 | 1.7 | 2.6 | 0.00 | 0.00 | 0.00 | 94 | 1012.6 |
| 20260509065342 | 52 | 305 | 1.7 | 2.6 | 0.00 | 0.00 | 0.00 | 94 | 1012.6 |
| 20260509065305 | 52 | 298 | 1.7 | 2.6 | 0.00 | 0.00 | 0.00 | 94 | 1012.5 |
| 20260509065220 | 52 | 325 | 1.7 | 2.6 | 0.00 | 0.00 | 0.00 | 94 | 1012.5 |
| 20260509064958 | 51 | 9 | 1.7 | 3.5 | 0.00 | 0.00 | 0.00 | 94 | 1012.5 |
| 20260509064736 | 51 | 319 | 1.7 | 3.5 | 0.00 | 0.00 | 0.00 | 94 | 1012.5 |
| 20260509064457 | 51 | 63 | 1.7 | 3.5 | 0.00 | 0.00 | 0.00 | 94 | 1012.5 |
| 20260509064410 | 51 | 132 | 1.7 | 3.5 | 0.00 | 0.00 | 0.00 | 94 | 1012.5 |
| 20260509064328 | 51 | 76 | 1.7 | 3.5 | 0.00 | 0.00 | 0.00 | 94 | 1012.5 |
| 20260509064244 | 51 | 51 | 2.6 | 3.5 | 0.00 | 0.00 | 0.00 | 94 | 1012.4 |
| 20260509064051 | 51 | 56 | 2.6 | 3.5 | 0.00 | 0.00 | 0.00 | 94 | 1012.5 |
| 20260509063947 | 50 | 69 | 2.6 | 3.5 | 0.00 | 0.00 | 0.00 | 94 | 1012.4 |
| 20260509063855 | 50 | 41 | 1.7 | 3.5 | 0.00 | 0.00 | 0.00 | 94 | 1012.4 |
| 20260509063813 | 50 | 45 | 1.7 | 2.6 | 0.00 | 0.00 | 0.00 | 94 | 1012.4 |
| 20260509063729 | 50 | 65 | 1.7 | 2.6 | 0.00 | 0.00 | 0.00 | 94 | 1012.4 |
| 20260509063650 | 50 | 59 | 1.7 | 2.6 | 0.00 | 0.00 | 0.00 | 94 | 1012.4 |
| 20260509063604 | 50 | 65 | 1.7 | 2.6 | 0.00 | 0.00 | 0.00 | 94 | 1012.4 |
| 20260509063517 | 50 | 38 | 0.9 | 1.7 | 0.00 | 0.00 | 0.00 | 94 | 1012.5 |
| 20260509063435 | 49 | 41 | 0.9 | 1.7 | 0.00 | 0.00 | 0.00 | 94 | 1012.6 |
| 20260509063351 | 49 | 51 | 0.9 | 1.7 | 0.00 | 0.00 | 0.00 | 94 | 1012.6 |
| 20260509063311 | 49 | 44 | 0.0 | 1.7 | 0.00 | 0.00 | 0.00 | 94 | 1012.6 |
| 20260509062902 | 49 | 126 | 0.0 | 1.7 | 0.00 | 0.00 | 0.00 | 94 | 1012.7 |
| 20260509062640 | 49 | 265 | 0.9 | 1.7 | 0.00 | 0.00 | 0.00 | 94 | 1012.6 |
| 20260509062213 | 49 | 205 | 0.9 | 1.7 | 0.00 | 0.00 | 0.00 | 94 | 1012.6 |
| 20260509062110 | 49 | 291 | 0.9 | 1.7 | 0.00 | 0.00 | 0.00 | 94 | 1012.6 |
| 20260509062049 | 48 | 26 | 1.7 | 1.7 | 0.00 | 0.00 | 0.00 | 94 | 1012.3 |
| 20260509062012 | 49 | 34 | 0.9 | 0.9 | 0.00 | 0.00 | 0.00 | 94 | 1012.6 |
| 20260509061910 | 49 | 178 | 0.9 | 0.9 | 0.00 | 0.00 | 0.00 | 94 | 1012.6 |
| 20260509061828 | 49 | 234 | 0.0 | 1.7 | 0.00 | 0.00 | 0.00 | 94 | 1012.5 |
| 20260509061746 | 48 | 212 | 0.0 | 1.7 | 0.00 | 0.00 | 0.00 | 94 | 1012.5 |
| 20260509061504 | 48 | 265 | 0.0 | 1.7 | 0.00 | 0.00 | 0.00 | 94 | 1012.5 |
| 20260509061420 | 47 | 59 | 0.9 | 1.7 | 0.00 | 0.00 | 0.00 | 93 | 1012.3 |
| 20260509061404 | 48 | 67 | 0.0 | 1.7 | 0.00 | 0.00 | 0.00 | 94 | 1012.5 |
| 20260509061320 | 47 | 46 | 0.9 | 1.7 | 0.00 | 0.00 | 0.00 | 93 | 1012.4 |
| 20260509061300 | 48 | 67 | 0.0 | 1.7 | 0.00 | 0.00 | 0.00 | 94 | 1012.5 |
| 20260509061202 | 48 | 41 | 0.0 | 1.7 | 0.00 | 0.00 | 0.00 | 94 | 1012.4 |
| 20260509061058 | 48 | 51 | 0.9 | 1.7 | 0.00 | 0.00 | 0.00 | 94 | 1012.4 |
| 20260509060957 | 48 | 325 | 0.9 | 1.7 | 0.00 | 0.00 | 0.00 | 94 | 1012.4 |
| 20260509060905 | 48 | 17 | 0.9 | 1.7 | 0.00 | 0.00 | 0.00 | 94 | 1012.4 |
| 20260509060823 | 48 | 67 | 0.9 | 1.7 | 0.00 | 0.00 | 0.00 | 94 | 1012.4 |
| 20260509060739 | 48 | 26 | 0.9 | 1.7 | 0.00 | 0.00 | 0.00 | 94 | 1012.4 |
| 20260509060648 | 48 | 19 | 1.7 | 1.7 | 0.00 | 0.00 | 0.00 | 94 | 1012.3 |
| 20260509060352 | 48 | 24 | 1.7 | 1.7 | 0.00 | 0.00 | 0.00 | 94 | 1012.4 |
| 20260509060313 | 46 | 309 | 0.9 | 1.7 | 0.00 | 0.00 | 0.00 | 93 | 1012.3 |
| 20260509060250 | 47 | 36 | 0.9 | 1.7 | 0.00 | 0.00 | 0.00 | 94 | 1012.3 |
| 20260509060212 | 46 | 51 | 0.0 | 1.7 | 0.00 | 0.00 | 0.00 | 93 | 1012.3 |
| 20260509060152 | 47 | 57 | 0.9 | 1.7 | 0.00 | 0.00 | 0.00 | 94 | 1012.3 |
| 20260509060109 | 47 | 61 | 0.9 | 1.7 | 0.00 | 0.00 | 0.00 | 94 | 1012.3 |
| 20260509060013 | 47 | 51 | 0.9 | 1.7 | 0.00 | 0.00 | 0.00 | 94 | 1012.3 |
| 20260509055927 | 47 | 67 | 0.9 | 1.7 | 0.00 | 0.00 | 0.00 | 93 | 1012.3 |
| 20260509055844 | 47 | 38 | 0.9 | 1.7 | 0.00 | 0.00 | 0.00 | 93 | 1012.4 |
| 20260509055619 | 47 | 67 | 0.9 | 1.7 | 0.00 | 0.00 | 0.00 | 93 | 1012.4 |
| 20260509055410 | 46 | 41 | 0.9 | 1.7 | 0.00 | 0.00 | 0.00 | 93 | 1012.3 |
| 20260509055340 | 47 | 34 | 0.9 | 1.7 | 0.00 | 0.00 | 0.00 | 93 | 1012.4 |
| 20260509055238 | 47 | 9 | 0.9 | 1.7 | 0.00 | 0.00 | 0.00 | 93 | 1012.3 |
| 20260509055135 | 47 | 34 | 0.9 | 1.7 | 0.00 | 0.00 | 0.00 | 93 | 1012.3 |
| 20260509055108 | 46 | 93 | 0.9 | 0.9 | 0.00 | 0.00 | 0.00 | 93 | 1012.2 |
| 20260509055036 | 47 | 76 | 0.9 | 0.9 | 0.00 | 0.00 | 0.00 | 93 | 1012.4 |
| 20260509054930 | 47 | 265 | 0.9 | 0.9 | 0.00 | 0.00 | 0.00 | 93 | 1012.4 |
| 20260509054830 | 47 | 212 | 0.9 | 0.9 | 0.00 | 0.00 | 0.00 | 93 | 1012.4 |
| 20260509054730 | 46 | 215 | 0.0 | 0.9 | 0.00 | 0.00 | 0.00 | 93 | 1012.4 |
| 20260509054632 | 46 | 137 | 0.0 | 0.9 | 0.00 | 0.00 | 0.00 | 93 | 1012.4 |
| 20260509054548 | 46 | 93 | 0.9 | 0.9 | 0.00 | 0.00 | 0.00 | 93 | 1012.3 |
| 20260509054510 | 46 | 126 | 0.0 | 1.7 | 0.00 | 0.00 | 0.00 | 93 | 1012.3 |
| 20260509054425 | 46 | 93 | 0.0 | 1.7 | 0.00 | 0.00 | 0.00 | 93 | 1012.3 |
| 20260509054344 | 46 | 26 | 0.0 | 1.7 | 0.00 | 0.00 | 0.00 | 93 | 1012.3 |
| 20260509054303 | 46 | 9 | 0.9 | 1.7 | 0.00 | 0.00 | 0.00 | 93 | 1012.3 |
| 20260509054044 | 46 | 26 | 0.0 | 1.7 | 0.00 | 0.00 | 0.00 | 93 | 1012.2 |
| 20260509053636 | 46 | 51 | 0.9 | 1.7 | 0.00 | 0.00 | 0.00 | 93 | 1012.3 |
| 20260509053556 | 46 | 44 | 0.9 | 0.9 | 0.00 | 0.00 | 0.00 | 93 | 1012.3 |
| 20260509053410 | 46 | 153 | 0.9 | 0.9 | 0.00 | 0.00 | 0.00 | 93 | 1012.3 |
| 20260509053310 | 46 | 26 | 0.0 | 0.9 | 0.00 | 0.00 | 0.00 | 93 | 1012.3 |
| 20260509053227 | 46 | 19 | 0.0 | 0.9 | 0.00 | 0.00 | 0.00 | 93 | 1012.2 |
| 20260509053147 | 46 | 51 | 0.9 | 0.9 | 0.00 | 0.00 | 0.00 | 93 | 1012.3 |
| 20260509052913 | 46 | 34 | 0.0 | 0.9 | 0.00 | 0.00 | 0.00 | 93 | 1012.2 |
| 20260509052830 | 46 | 67 | 0.0 | 0.9 | 0.00 | 0.00 | 0.00 | 93 | 1012.2 |
| 20260509052748 | 46 | 93 | 0.0 | 0.9 | 0.00 | 0.00 | 0.00 | 93 | 1012.2 |
| 20260509052600 | 46 | 51 | 0.0 | 0.9 | 0.00 | 0.00 | 0.00 | 93 | 1012.2 |
| 20260509052459 | 46 | 51 | 0.0 | 0.9 | 0.00 | 0.00 | 0.00 | 93 | 1012.2 |
| 20260509052402 | 46 | 76 | 0.0 | 0.9 | 0.00 | 0.00 | 0.00 | 93 | 1012.2 |
| 20260509052258 | 46 | 67 | 0.0 | 0.9 | 0.00 | 0.00 | 0.00 | 93 | 1012.3 |
| 20260509052232 | 45 | 61 | 0.0 | 1.7 | 0.00 | 0.00 | 0.00 | 93 | 1012.3 |
| 20260509052148 | 46 | 93 | 0.0 | 0.9 | 0.00 | 0.00 | 0.00 | 93 | 1012.3 |
| 20260509052100 | 46 | 67 | 0.9 | 0.9 | 0.00 | 0.00 | 0.00 | 93 | 1012.2 |
| 20260509052021 | 46 | 76 | 0.9 | 0.9 | 0.00 | 0.00 | 0.00 | 93 | 1012.3 |
| 20260509051741 | 45 | 119 | 0.0 | 0.9 | 0.00 | 0.00 | 0.00 | 93 | 1012.3 |
| 20260509051701 | 45 | 178 | 0.9 | 0.9 | 0.00 | 0.00 | 0.00 | 93 | 1012.4 |
| 20260509051621 | 45 | 51 | 0.9 | 0.9 | 0.00 | 0.00 | 0.00 | 93 | 1012.3 |
| 20260509051418 | 45 | 309 | 0.9 | 1.7 | 0.00 | 0.00 | 0.00 | 93 | 1012.3 |
| 20260509051337 | 45 | 67 | 0.0 | 0.9 | 0.00 | 0.00 | 0.00 | 93 | 1012.3 |
| 20260509051235 | 45 | 41 | 0.0 | 0.9 | 0.00 | 0.00 | 0.00 | 93 | 1012.3 |
| 20260509051138 | 45 | 9 | 0.9 | 0.9 | 0.00 | 0.00 | 0.00 | 93 | 1012.2 |
| 20260509051100 | 45 | 232 | 0.0 | 0.9 | 0.00 | 0.00 | 0.00 | 93 | 1012.2 |
| 20260509051033 | 45 | 34 | 0.9 | 0.9 | 0.00 | 0.00 | 0.00 | 93 | 1012.3 |
| 20260509050933 | 45 | 51 | 0.0 | 0.9 | 0.00 | 0.00 | 0.00 | 93 | 1012.2 |
| 20260509050831 | 45 | 93 | 0.0 | 0.9 | 0.00 | 0.00 | 0.00 | 93 | 1012.3 |
| 20260509050742 | 45 | 93 | 0.0 | 0.9 | 0.00 | 0.00 | 0.00 | 93 | 1012.2 |
| 20260509050703 | 45 | 51 | 0.9 | 1.7 | 0.00 | 0.00 | 0.00 | 93 | 1012.3 |
| 20260509050422 | 45 | 93 | 0.0 | 1.7 | 0.00 | 0.00 | 0.00 | 93 | 1012.3 |
| 20260509050315 | 45 | 51 | 0.0 | 1.7 | 0.00 | 0.00 | 0.00 | 93 | 1012.3 |
| 20260509050215 | 45 | 265 | 0.0 | 1.7 | 0.00 | 0.00 | 0.00 | 93 | 1012.3 |
| 20260509050150 | 45 | 111 | 0.0 | 0.9 | 0.00 | 0.00 | 0.00 | 92 | 1012.2 |
| 20260509050111 | 45 | 9 | 0.0 | 1.7 | 0.00 | 0.00 | 0.00 | 93 | 1012.3 |
| 20260509050017 | 45 | 93 | 0.9 | 1.7 | 0.00 | 0.00 | 0.00 | 93 | 1012.3 |
| 20260509045940 | 45 | 9 | 0.9 | 1.7 | 0.00 | 0.00 | 0.00 | 93 | 1012.3 |
| 20260509045657 | 45 | 334 | 0.9 | 1.7 | 0.00 | 0.00 | 0.00 | 93 | 1012.3 |
| 20260509045556 | 45 | 9 | 0.9 | 1.7 | 0.00 | 0.00 | 0.00 | 93 | 1012.3 |
| 20260509045454 | 45 | 41 | 0.9 | 1.7 | 0.00 | 0.00 | 0.00 | 93 | 1012.2 |
| 20260509045350 | 45 | 22 | 0.0 | 1.7 | 0.00 | 0.00 | 0.00 | 93 | 1012.2 |
| 20260509045324 | 46 | 178 | 0.9 | 1.7 | 0.00 | 0.00 | 0.00 | 92 | 1012.2 |
| 20260509045249 | 45 | 34 | 0.0 | 0.9 | 0.00 | 0.00 | 0.00 | 93 | 1012.2 |
| 20260509045148 | 45 | 26 | 0.0 | 0.9 | 0.00 | 0.00 | 0.00 | 93 | 1012.2 |
| 20260509045128 | 46 | 205 | 0.9 | 3.5 | 0.00 | 0.00 | 0.00 | 92 | 1012.3 |
| 20260509045051 | 45 | 232 | 0.0 | 0.9 | 0.00 | 0.00 | 0.00 | 93 | 1012.2 |
| 20260509045016 | 45 | 232 | 0.0 | 0.9 | 0.00 | 0.00 | 0.00 | 93 | 1012.2 |
| 20260509044726 | 45 | 232 | 0.0 | 0.9 | 0.00 | 0.00 | 0.00 | 93 | 1012.3 |
| 20260509044614 | 45 | 232 | 0.0 | 0.9 | 0.00 | 0.00 | 0.00 | 93 | 1012.3 |
| 20260509044559 | 45 | 178 | 0.9 | 1.7 | 0.00 | 0.00 | 0.00 | 92 | 1012.3 |
| 20260509044516 | 45 | 178 | 0.0 | 0.9 | 0.00 | 0.00 | 0.00 | 93 | 1012.3 |
| 20260509044425 | 45 | 153 | 0.9 | 1.7 | 0.00 | 0.00 | 0.00 | 92 | 1012.3 |
| 20260509044410 | 45 | 178 | 0.0 | 0.9 | 0.00 | 0.00 | 0.00 | 93 | 1012.3 |
| 20260509044309 | 45 | 9 | 0.0 | 0.9 | 0.00 | 0.00 | 0.00 | 93 | 1012.3 |
| 20260509044246 | 45 | 51 | 0.0 | 0.9 | 0.00 | 0.00 | 0.00 | 93 | 1012.2 |
| 20260509044210 | 45 | 265 | 0.0 | 0.9 | 0.00 | 0.00 | 0.00 | 92 | 1012.3 |
| 20260509044144 | 45 | 178 | 0.0 | 1.7 | 0.00 | 0.00 | 0.00 | 92 | 1012.2 |
| 20260509044106 | 45 | 51 | 0.0 | 0.9 | 0.00 | 0.00 | 0.00 | 93 | 1012.2 |
| 20260509044005 | 45 | 178 | 0.9 | 0.9 | 0.00 | 0.00 | 0.00 | 92 | 1012.2 |
| 20260509043904 | 45 | 178 | 0.9 | 0.9 | 0.00 | 0.00 | 0.00 | 92 | 1012.2 |
| 20260509043846 | 46 | 217 | 0.0 | 2.6 | 0.00 | 0.00 | 0.00 | 92 | 1012.3 |
| 20260509043803 | 45 | 61 | 0.0 | 0.9 | 0.00 | 0.00 | 0.00 | 92 | 1012.2 |
| 20260509043657 | 45 | 137 | 0.0 | 0.9 | 0.00 | 0.00 | 0.00 | 92 | 1012.2 |
| 20260509043645 | 46 | 238 | 0.9 | 2.6 | 0.00 | 0.00 | 0.00 | 92 | 1012.4 |